GFSNE_sfc_dewp_000.txt.gz
Dewpoint
38 38 36 35 32 30 29 28 26 23 22 26 39 48 50 52 51 52 52 48 48 48 48 50 52 54 54 55 54 54 55 55 55 54 52 50 47 46
33 34 35 35 32 31 29 30 30 28 25 24 24 43 48 49 50 51 51 50 46 46 46 47 49 50 52 53 53 53 54 53 52 51 50 47 46 45
32 33 34 34 34 32 31 29 28 29 28 30 28 34 41 45 47 48 50 50 50 44 44 46 47 48 50 50 50 50 50 49 48 48 47 46 45 43
29 30 30 27 33 34 32 30 29 29 27 30 30 32 38 41 45 45 47 49 50 46 45 45 47 48 47 46 46 45 45 45 44 45 45 44 43 41
29 29 29 29 31 32 31 30 29 25 29 30 30 30 34 41 44 45 44 45 47 47 44 45 46 46 45 44 43 42 42 42 42 41 41 41 41 40
29 31 31 31 32 31 29 30 28 30 30 29 28 28 31 38 43 41 39 41 40 43 45 45 44 43 43 42 41 41 41 41 40 39 39 38 37 37
28 28 29 30 31 32 31 32 31 32 30 29 31 32 32 35 39 40 40 37 37 37 38 40 44 43 42 41 41 41 41 40 40 39 38 36 34 32
28 28 28 30 30 30 30 32 34 34 32 32 30 30 30 32 37 40 36 34 34 35 34 33 37 40 40 41 40 40 39 39 39 37 36 33 31 30
28 28 27 25 29 28 30 30 30 31 30 32 32 30 29 31 34 39 37 37 35 34 35 30 32 32 36 38 38 38 38 38 37 36 33 32 30 29
28 28 28 29 29 28 29 30 31 32 32 29 30 32 31 31 32 39 38 36 33 33 32 28 30 28 32 33 37 37 36 36 35 34 32 31 31 29
28 29 28 29 30 30 29 30 29 32 34 33 32 31 32 36 37 39 36 34 30 30 29 28 27 28 30 32 33 36 36 34 34 32 32 31 28 27
29 30 28 29 29 29 30 30 31 29 31 34 35 34 34 34 35 39 38 36 30 28 30 24 26 25 22 28 32 33 34 33 32 32 30 28 26 21
28 30 32 30 30 30 30 32 30 29 30 32 31 33 33 34 33 37 38 37 31 27 29 25 25 22 20 24 28 30 31 31 28 27 26 26 26 21
30 30 31 30 30 32 32 31 30 29 32 35 33 33 33 32 32 35 37 38 35 35 29 26 25 24 23 23 22 26 27 28 26 22 22 24 25 19
29 28 27 27 28 30 32 31 31 32 33 32 34 32 33 33 35 34 32 31 31 31 29 29 28 28 27 24 20 22 23 24 20 22 23 18 15 13
28 28 29 29 31 33 33 32 32 33 32 32 31 32 33 33 32 31 28 26 24 25 29 32 30 27 26 25 20 21 22 20 23 25 24 19 8 6
28 30 29 27 28 30 33 32 32 33 34 36 36 32 30 29 28 30 28 26 23 23 25 28 30 30 27 25 23 21 23 23 23 22 20 15 10 4
27 27 27 28 26 26 28 31 33 32 33 34 34 31 29 28 27 28 28 28 23 24 25 25 23 21 19 21 23 22 20 16 15 18 18 16 10 10
25 25 25 25 24 23 24 26 26 28 30 29 29 30 30 28 28 28 27 28 24 24 23 23 21 20 18 18 15 16 18 17 18 18 18 17 16 12
23 23 24 24 23 23 23 23 25 27 27 27 27 27 27 27 28 26 26 25 23 21 21 22 23 22 22 17 16 18 17 19 19 19 15 16 14 11
21 23 25 22 23 23 24 24 24 24 26 27 26 26 28 26 25 25 25 24 23 22 21 22 19 19 19 19 15 14 14 13 18 19 17 14 9 8
27 23 23 25 24 23 24 25 25 24 24 24 26 27 27 25 23 22 22 22 21 19 13 12 12 12 17 15 14 14 12 11 6 5 7 11 16 10
26 27 28 26 25 24 23 23 22 22 22 22 24 24 25 24 23 23 22 19 15 13 12 12 11 11 11 11 12 13 11 10 11 9 12 2 3 5

GFSNE_sfc_dewp_003.txt.gz
Dewpoint
38 39 36 35 37 37 37 34 31 28 27 30 30 37 48 50 51 53 53 52 49 48 50 51 53 54 55 55 55 54 54 54 55 55 55 55 55 54
33 35 35 34 34 36 35 36 34 31 29 29 28 33 42 48 50 51 52 50 49 47 46 48 50 53 53 54 54 53 53 53 54 54 54 55 54 53
33 33 34 34 33 33 35 36 35 33 30 31 31 32 36 45 47 48 50 50 51 46 45 46 47 49 51 51 52 53 52 51 52 53 53 53 52 50
29 30 31 26 32 33 33 35 35 34 31 30 31 30 34 37 39 44 46 48 49 48 45 45 45 46 47 48 49 49 49 50 50 50 50 50 49 49
28 29 30 30 31 31 32 32 34 31 32 30 29 30 31 33 37 41 44 46 46 45 45 43 44 45 46 47 47 48 47 47 46 46 45 45 46 45
29 30 28 29 30 31 31 33 31 32 32 31 30 30 31 32 34 39 42 43 43 43 44 43 43 45 45 46 46 47 46 45 44 42 42 41 41 41
27 26 28 30 30 30 29 30 32 33 32 31 31 31 31 30 32 38 40 40 39 40 40 38 41 44 46 46 47 46 45 43 43 42 41 39 39 39
27 26 26 28 28 30 30 30 30 31 32 34 33 32 32 32 32 34 39 37 35 37 37 35 38 38 43 47 45 43 43 42 41 41 40 39 37 36
27 28 27 24 28 28 29 30 30 30 29 29 30 33 33 33 33 33 38 37 36 36 35 32 34 33 33 38 42 41 41 41 41 39 38 37 35 34
28 28 28 29 29 29 30 31 30 31 31 28 28 30 32 34 36 35 38 38 34 35 35 30 30 31 33 34 39 41 40 39 39 38 37 35 34 32
28 28 29 30 30 30 31 31 31 32 32 32 34 32 30 30 32 35 37 35 31 31 32 28 28 28 31 31 32 37 39 38 37 36 35 34 33 31
30 30 29 28 30 31 31 30 30 30 29 30 34 34 35 32 30 33 36 36 32 29 31 26 28 27 25 30 32 32 32 34 35 35 34 33 32 27
28 30 32 31 32 31 30 31 31 30 29 28 32 35 34 34 33 35 35 37 34 33 30 25 25 25 25 27 31 32 32 32 32 33 35 33 30 25
29 29 30 32 32 30 29 29 32 32 31 32 32 33 32 35 34 34 36 38 37 35 30 28 26 24 25 26 25 30 31 32 32 31 31 32 29 24
31 30 29 28 28 28 28 28 28 32 31 31 32 31 32 32 33 32 37 33 32 32 32 30 28 27 28 25 24 26 26 28 29 29 29 29 28 25
29 29 28 29 30 31 32 33 31 32 31 30 30 35 33 33 33 32 32 30 28 29 32 33 30 29 30 27 24 24 26 24 27 28 28 27 25 24
28 31 29 28 28 29 33 33 32 33 32 32 32 31 34 34 34 33 29 29 25 27 26 30 31 32 28 26 24 24 24 24 26 26 25 23 24 25
29 27 27 27 26 27 30 31 31 30 31 32 33 34 33 32 30 32 30 29 26 26 26 27 27 25 23 26 25 23 24 23 25 25 25 23 22 16
27 26 26 26 26 25 26 27 30 33 34 33 34 34 33 30 28 28 30 28 26 25 26 27 25 23 20 19 22 27 25 25 25 23 24 23 20 16
25 25 26 25 24 25 25 26 28 29 29 29 31 33 32 30 29 27 28 27 27 26 25 25 25 25 24 20 20 21 24 24 23 22 21 21 16 15
26 25 26 25 25 25 25 26 27 28 28 28 28 28 30 30 29 29 28 27 26 25 23 24 26 29 24 22 19 18 17 21 22 23 21 19 14 11
27 27 27 27 27 26 27 26 26 26 28 27 28 28 28 28 26 26 26 24 23 25 19 19 21 20 20 17 17 16 16 16 12 14 15 16 17 12
25 27 27 28 28 27 26 25 25 26 26 26 26 25 25 24 25 26 25 21 19 19 19 20 21 21 17 16 16 14 14 12 11 9 12 7 9 10

GFSNE_sfc_dewp_006.txt.gz
Dewpoint
33 34 33 33 35 34 32 31 29 28 29 31 31 32 35 48 49 50 51 50 49 48 48 50 52 54 55 55 56 56 56 56 56 56 56 56 55 56
31 32 32 32 32 32 31 32 33 32 30 30 31 32 32 36 47 48 49 49 48 47 47 47 49 51 53 54 54 54 55 55 55 55 55 55 55 55
29 29 29 30 30 30 31 31 31 31 31 31 33 33 32 33 36 46 47 47 49 46 45 46 46 47 48 52 52 52 53 53 53 54 54 54 55 55
26 27 27 25 27 29 29 29 30 30 31 30 32 33 31 30 30 35 44 46 45 46 45 45 45 45 46 46 49 50 50 50 50 51 52 52 54 55
25 26 26 27 27 28 28 29 29 28 30 31 31 32 31 32 31 31 33 42 45 45 43 43 44 44 45 45 46 48 49 48 48 48 49 50 51 51
27 28 28 28 28 28 27 28 28 29 30 32 31 31 31 30 31 30 30 38 39 43 43 43 43 44 44 44 44 46 49 48 48 48 46 45 46 46
26 26 26 27 29 29 27 27 27 27 29 31 31 32 30 30 29 31 31 33 37 37 39 40 40 43 44 44 45 45 47 48 47 47 47 45 43 43
26 26 25 27 27 28 28 29 28 27 27 29 30 32 32 32 31 31 31 31 34 34 36 37 35 38 39 44 44 44 45 47 47 46 45 44 43 42
25 25 25 24 27 26 28 29 29 30 28 27 24 25 28 30 33 32 31 32 34 34 35 33 33 34 34 38 41 42 44 45 46 45 44 42 40 39
27 26 26 26 27 27 27 28 30 30 29 28 28 27 26 27 29 32 34 33 34 33 31 32 30 30 33 34 40 41 43 43 44 43 42 40 38 37
28 28 27 27 28 29 29 30 29 29 30 33 32 31 30 30 29 29 30 32 32 32 32 29 28 28 30 31 33 38 40 42 42 41 40 39 37 36
28 30 30 31 31 30 29 29 28 28 29 28 28 30 32 32 32 32 28 28 31 30 32 26 27 28 26 30 31 33 34 36 39 39 38 37 35 34
28 27 27 28 29 31 32 30 29 28 28 27 28 28 28 32 32 32 30 29 31 32 29 27 26 27 27 27 30 31 32 32 32 33 36 36 35 32
28 29 29 30 30 31 31 31 31 31 31 30 30 28 30 30 30 32 31 30 34 35 31 27 24 25 26 26 24 30 31 32 32 31 31 32 33 32
28 29 30 30 29 29 30 30 28 28 27 28 28 29 29 30 33 32 33 34 34 34 32 30 27 27 27 25 25 27 27 30 31 30 30 28 25 25
29 29 28 28 29 29 30 31 30 30 27 27 29 29 32 32 32 33 31 31 29 29 32 32 29 28 27 27 26 26 27 25 29 29 29 28 27 28
29 27 27 26 25 26 27 31 28 28 28 30 29 29 30 31 32 32 30 29 27 27 28 30 31 30 29 28 26 26 26 26 27 27 25 23 25 27
27 25 23 23 25 25 26 29 28 27 27 26 27 30 31 32 31 30 30 28 27 26 26 26 26 24 25 25 27 24 25 25 26 26 25 23 22 25
24 22 23 23 23 24 25 27 27 31 30 29 28 31 29 28 29 29 29 28 27 26 26 26 25 22 21 18 23 25 23 24 24 23 24 24 22 23
26 24 23 22 24 23 24 25 27 28 28 29 31 31 27 26 27 28 26 26 25 26 25 25 25 25 23 19 19 19 27 24 22 22 23 21 23 25
24 23 25 25 23 24 24 24 25 26 27 28 28 28 29 28 28 28 25 25 25 24 23 24 26 27 21 19 17 14 17 28 25 23 23 19 17 17
22 23 24 25 25 24 23 23 23 24 26 25 25 25 27 27 26 25 24 23 24 22 19 22 24 22 19 17 13 12 13 16 22 23 21 19 19 13
19 20 22 23 24 25 25 23 22 22 23 24 24 24 22 21 23 21 20 19 19 19 19 21 24 23 19 16 15 14 14 14 16 12 11 16 16 17

GFSNE_sfc_dewp_009.txt.gz
Dewpoint
33 34 34 33 34 33 33 31 30 27 27 29 29 31 31 40 45 46 49 49 49 48 47 49 50 51 52 54 55 57 58 57 57 57 57 57 57 57
32 32 32 32 33 34 33 33 33 31 29 30 31 33 34 36 39 43 45 48 47 46 46 47 47 49 49 50 51 53 56 56 56 56 56 56 57 56
30 29 29 30 30 31 31 30 30 29 28 28 29 31 33 34 35 37 42 45 46 45 44 45 45 45 46 46 47 49 51 54 54 54 55 56 57 56
27 28 27 25 26 27 28 27 28 28 28 27 28 29 32 33 33 34 33 42 44 45 45 43 44 45 44 44 44 44 45 48 53 53 53 54 55 55
26 26 25 26 25 26 27 27 28 27 30 30 30 32 33 33 33 33 33 35 43 44 43 41 42 42 44 44 44 44 44 44 47 50 50 51 51 52
27 28 27 27 27 26 26 26 27 27 27 27 27 27 29 31 33 31 31 31 33 42 43 42 41 42 43 43 43 44 44 44 44 46 48 47 48 49
27 26 26 27 29 29 26 25 25 25 26 26 26 26 27 29 31 31 31 30 31 34 36 36 36 37 39 42 43 44 44 44 44 44 46 47 47 47
25 25 25 26 27 29 29 29 27 25 24 24 24 25 26 28 33 33 32 30 27 33 32 34 35 36 36 40 40 42 43 43 43 44 44 46 46 46
24 25 25 24 27 25 27 28 28 29 27 27 26 24 24 25 27 29 31 32 30 31 32 33 26 32 31 35 37 38 40 42 43 43 43 44 46 46
26 26 26 26 26 26 26 25 26 26 27 27 28 27 27 27 26 26 27 32 33 34 33 32 24 25 25 29 35 37 39 41 42 42 42 43 45 45
28 28 28 29 29 30 28 29 27 27 28 31 31 31 31 31 29 27 26 26 26 30 32 31 28 28 24 24 28 34 36 39 41 42 42 43 44 44
26 26 27 27 29 30 30 29 27 27 27 28 28 29 31 31 33 30 30 27 26 26 28 31 27 27 26 21 24 32 33 36 40 41 42 43 43 45
26 27 26 28 29 30 31 30 29 29 28 28 27 27 28 28 29 31 33 32 29 27 32 31 27 27 25 22 22 31 31 33 34 36 40 41 41 42
27 27 28 29 30 30 31 31 31 30 30 29 28 28 28 29 28 31 31 31 32 30 31 32 29 27 25 24 25 25 30 31 32 32 32 34 36 37
29 30 30 30 30 29 29 30 29 29 27 26 26 28 28 28 29 31 32 33 32 31 31 31 30 28 27 21 24 22 27 29 31 29 29 29 29 30
28 28 26 26 27 26 26 28 30 30 29 26 26 27 30 30 30 31 31 32 31 31 33 33 31 30 28 26 27 26 27 26 29 28 26 26 26 28
26 24 23 22 22 24 25 26 26 24 29 27 27 27 29 29 30 32 32 30 28 27 27 29 31 30 29 28 26 27 26 27 29 27 26 25 26 26
25 20 20 21 21 23 23 25 27 24 25 26 25 27 29 29 29 30 30 29 28 26 27 26 26 26 26 24 28 25 26 26 27 26 26 23 23 26
23 23 19 20 22 22 23 24 25 27 29 25 27 29 29 27 29 29 29 27 24 24 26 25 24 20 19 15 22 28 25 25 25 24 25 25 23 25
23 22 22 20 21 22 22 22 24 25 27 27 30 27 27 25 25 27 26 21 23 24 23 24 24 21 19 19 18 19 28 24 24 23 21 22 25 27
19 20 21 22 22 22 21 21 22 23 23 24 25 27 23 19 24 23 19 17 18 20 22 22 22 21 22 22 17 14 17 28 27 24 21 20 19 19
17 17 18 19 19 22 22 22 21 22 22 22 22 22 23 24 23 23 20 21 21 19 19 21 23 22 18 19 13 12 14 17 23 24 25 23 19 16
15 15 15 15 16 17 18 21 21 20 21 21 21 21 22 21 21 20 18 19 20 20 20 21 22 21 18 16 13 12 11 13 14 12 15 22 22 24

GFSNE_sfc_dewp_012.txt.gz
Dewpoint
32 32 32 33 34 34 33 32 30 28 28 30 30 33 34 36 39 40 43 47 48 47 47 48 49 50 50 51 52 52 54 57 58 57 57 57 57 57
32 32 32 32 32 32 32 32 31 29 27 27 27 29 32 32 36 37 39 42 44 45 45 45 47 48 48 49 49 49 48 52 52 57 57 56 57 57
30 30 29 30 29 30 31 30 30 30 28 28 29 30 31 32 34 37 38 38 39 43 42 43 43 44 43 44 46 46 48 48 49 51 56 57 57 57
27 27 27 25 26 27 28 27 27 27 27 25 26 28 29 32 34 35 35 36 38 40 41 43 44 43 42 44 42 42 44 45 46 47 48 55 56 56
26 26 27 27 27 27 27 28 29 28 28 28 27 29 30 33 31 33 34 35 36 38 40 41 42 43 42 42 41 43 43 43 43 44 45 46 52 54
27 27 26 26 25 25 25 25 25 25 25 25 25 26 27 28 31 30 31 33 33 33 39 41 41 41 41 42 42 42 43 43 43 43 43 42 43 50
26 25 25 26 28 28 26 26 25 25 24 23 22 23 23 24 26 28 30 31 32 32 33 36 37 37 38 40 41 41 41 42 42 43 43 43 43 44
24 24 24 26 25 27 29 29 28 26 25 24 23 23 23 25 27 28 30 30 29 30 32 32 34 34 35 36 39 39 40 41 42 42 43 42 43 43
25 25 25 24 26 25 27 28 28 29 27 26 25 25 25 26 26 27 27 28 27 31 33 32 31 33 32 35 38 37 38 39 39 40 41 41 41 41
26 26 26 26 26 26 26 27 26 26 26 25 26 27 27 28 27 26 26 27 27 30 34 30 30 29 22 27 34 36 37 37 38 38 39 40 41 40
27 26 26 27 28 28 27 28 28 27 28 30 30 29 30 30 30 28 28 27 25 25 30 31 31 25 24 22 27 33 34 35 36 37 38 39 41 40
25 25 27 27 28 29 28 28 27 27 27 27 27 29 30 30 31 32 30 26 26 23 26 29 28 27 28 16 20 22 25 32 35 36 37 39 40 41
25 25 26 28 29 30 30 29 28 28 27 28 27 27 28 28 28 30 32 31 28 27 28 30 26 23 27 24 18 20 25 28 32 34 37 39 40 41
27 27 29 30 27 29 29 31 30 30 29 28 27 27 27 27 27 28 29 31 31 30 30 29 25 23 21 17 20 19 19 23 31 31 32 36 39 40
29 28 27 26 25 25 27 28 28 28 28 27 25 25 27 28 29 29 28 29 30 32 31 30 29 25 25 21 25 19 18 20 23 28 27 29 32 35
26 25 23 23 21 25 26 27 28 29 29 28 27 26 28 30 29 28 29 29 30 29 32 31 30 30 25 23 24 19 21 20 21 27 26 27 28 29
27 22 20 20 21 22 23 25 27 27 24 27 27 25 27 27 29 28 29 29 28 29 29 31 32 32 29 27 25 26 25 25 22 26 26 25 25 26
23 21 16 20 20 21 21 22 23 26 26 21 17 20 21 25 24 25 28 29 28 28 26 27 27 26 26 25 29 25 25 25 23 26 26 23 22 25
21 20 18 20 20 20 20 21 21 24 28 28 26 27 27 26 29 29 27 26 26 26 26 27 27 26 21 19 21 27 24 25 23 24 25 25 23 24
18 18 17 18 19 21 20 20 20 22 22 24 27 24 25 22 20 23 25 22 23 23 23 25 24 24 20 17 15 14 27 24 24 22 22 24 25 27
16 16 16 16 16 17 19 20 20 20 21 21 21 22 21 15 20 20 20 22 21 22 21 21 22 24 22 20 13 13 21 28 26 22 23 21 19 20
14 14 14 14 14 14 15 17 19 20 19 19 19 20 21 22 22 23 21 20 20 18 19 21 23 23 20 17 9 5 14 18 23 25 26 24 20 16
12 11 12 12 12 12 13 13 18 18 19 18 17 18 18 18 18 17 16 19 20 20 20 20 20 19 18 15 13 10 12 14 14 14 13 22 26 25

GFSNE_sfc_dewp_015.txt.gz
Dewpoint
35 34 32 32 33 33 33 32 29 26 24 26 28 31 33 36 38 36 36 40 41 41 41 44 48 50 50 50 51 52 51 52 55 56 58 58 57 57
33 32 32 32 32 33 32 32 31 29 26 27 27 29 30 30 36 37 38 40 40 40 41 43 44 46 47 48 49 49 49 49 49 49 54 58 58 57
30 30 30 30 30 30 30 30 29 29 26 26 28 28 28 28 30 33 35 37 39 40 40 42 43 43 44 45 44 45 46 48 48 48 50 52 58 58
28 28 27 25 27 28 29 28 28 27 26 24 25 26 27 28 32 34 33 34 36 37 39 39 41 42 42 42 41 42 43 43 45 46 48 48 51 55
27 27 27 27 27 27 27 27 27 27 27 27 26 27 28 29 29 30 31 32 32 34 36 37 39 41 42 42 42 41 41 40 40 42 44 45 47 48
27 26 26 25 25 25 24 24 24 24 24 24 23 24 25 26 27 26 27 31 31 32 34 35 37 39 41 42 41 40 42 42 42 42 41 41 41 44
25 25 25 25 27 26 24 25 25 25 24 24 23 23 23 23 23 25 26 28 30 32 33 34 35 37 40 41 42 42 41 41 41 40 41 41 41 42
24 24 25 26 26 27 27 28 28 26 26 25 25 24 23 24 25 25 25 25 25 29 32 33 34 34 35 37 40 40 40 41 41 41 41 41 41 41
25 25 25 25 26 25 26 27 28 28 28 27 26 25 23 24 25 25 26 25 25 28 29 28 29 32 34 35 37 39 39 39 39 39 39 39 39 39
26 26 26 26 26 25 25 26 26 25 25 25 26 26 27 26 26 27 26 26 26 26 29 26 28 30 26 29 34 37 38 38 38 38 37 37 37 38
25 26 25 25 27 28 27 27 26 26 27 30 30 28 29 30 29 28 28 26 24 24 23 26 25 27 28 27 29 33 36 37 36 36 36 36 36 37
25 25 25 25 27 28 28 27 26 25 26 26 27 29 30 30 30 30 30 26 25 23 23 25 23 24 23 20 20 22 24 32 33 34 35 35 36 37
24 25 27 28 28 29 30 28 27 29 27 27 27 28 28 28 28 29 31 31 27 25 26 26 22 23 26 23 17 18 26 30 30 32 33 34 34 37
26 28 27 26 25 25 25 26 28 28 29 28 27 27 28 28 28 28 29 31 30 30 29 29 26 25 25 26 27 16 16 18 25 23 24 31 34 36
29 28 29 24 24 24 25 27 27 27 26 26 26 27 27 28 28 28 30 30 32 32 32 31 28 25 24 22 19 23 17 16 20 15 18 23 28 30
26 26 24 22 22 24 25 26 27 28 27 27 27 27 28 29 28 29 28 28 28 28 32 32 32 30 28 27 25 24 16 21 22 15 16 16 23 27
24 22 20 19 19 20 21 21 22 23 25 23 23 25 26 27 27 28 28 29 27 26 27 30 32 32 31 30 26 26 18 19 17 18 19 15 18 24
22 19 16 15 17 19 19 18 19 21 23 26 25 21 21 24 24 25 28 28 27 27 27 29 30 27 26 26 30 24 24 23 20 18 17 15 18 25
18 17 14 14 14 17 18 18 19 20 22 23 25 27 27 28 27 27 27 28 27 23 24 26 27 26 23 21 23 28 23 22 18 17 17 17 21 24
16 16 14 14 14 15 15 18 18 19 18 19 21 21 23 24 24 25 25 22 22 21 21 24 25 25 25 22 20 20 27 22 17 13 17 23 25 27
13 13 14 13 12 12 12 13 19 19 16 16 17 17 19 22 24 23 21 23 23 23 22 22 22 24 22 22 16 14 20 28 24 14 18 18 19 20
12 12 12 12 11 11 10 11 15 18 17 16 15 15 15 18 19 20 19 19 18 18 19 21 24 24 21 19 12 10 10 15 21 22 24 23 20 17
10 10 9 10 10 11 11 10 11 14 17 15 14 14 12 10 14 12 12 15 14 13 16 17 19 17 17 16 15 12 10 11 13 16 14 23 25 25

GFSNE_sfc_dewp_018.txt.gz
Dewpoint
38 38 37 36 36 35 34 32 30 24 22 25 27 32 33 34 36 38 37 38 40 41 41 40 41 43 46 49 49 51 51 50 50 53 54 59 59 59
36 34 33 33 33 33 33 32 32 29 25 26 27 30 31 29 34 36 36 37 36 37 39 40 41 43 43 46 48 50 49 48 48 49 50 54 58 59
31 30 30 30 30 31 32 31 30 29 27 26 27 28 29 30 29 33 34 34 37 39 39 39 40 41 41 43 43 45 47 47 48 48 48 51 54 59
28 27 27 25 27 29 29 28 29 28 27 25 26 27 27 28 29 30 32 33 34 34 36 36 36 37 38 40 41 42 43 43 44 45 46 47 48 51
27 27 27 27 26 26 26 26 26 25 26 25 24 25 27 29 28 29 30 31 32 33 34 35 36 37 38 39 41 41 41 42 41 41 42 43 45 48
26 26 25 25 24 23 23 23 23 23 24 24 23 23 24 25 27 26 27 29 30 29 31 32 34 35 37 38 40 41 41 41 41 41 41 39 39 42
26 25 24 25 26 25 24 25 25 25 24 24 24 24 24 25 25 25 25 26 28 30 31 32 34 35 35 38 40 41 40 41 42 41 40 39 39 40
25 24 24 25 26 27 27 28 28 26 26 26 25 23 23 23 25 25 25 25 23 29 28 29 33 33 35 36 38 40 41 42 41 40 40 39 40 40
25 25 24 24 26 24 25 25 26 28 27 27 26 25 25 25 24 25 25 24 24 26 29 28 32 32 33 34 35 37 39 40 40 40 40 39 38 37
25 25 25 25 24 24 25 27 27 26 25 24 25 25 25 26 27 26 26 26 26 26 29 25 28 28 30 32 33 35 37 39 39 39 38 38 37 37
24 25 26 26 25 26 26 26 26 26 27 28 30 30 30 30 29 28 27 26 24 25 27 26 26 26 28 29 32 32 34 36 38 37 37 37 36 36
23 24 25 26 27 28 28 28 26 27 28 28 28 28 30 31 31 30 30 26 25 25 25 25 24 25 25 27 30 31 31 33 36 36 36 35 35 35
25 24 26 28 27 25 25 25 24 25 26 28 28 28 28 28 29 30 31 29 27 26 26 25 23 25 25 25 26 27 29 30 32 32 32 33 34 34
25 26 28 29 24 24 25 26 28 28 27 27 27 27 27 27 28 28 30 31 31 29 29 27 26 25 26 26 25 25 25 26 28 30 30 31 32 33
28 27 26 24 23 23 24 26 26 26 26 25 25 26 27 29 30 30 31 31 31 32 32 32 30 28 27 27 26 27 29 27 28 27 27 27 28 30
27 25 23 21 19 21 23 23 24 24 24 25 25 26 28 29 29 29 28 28 28 28 31 32 32 31 28 27 27 28 24 28 27 25 25 25 26 26
25 22 19 16 16 17 19 20 20 21 21 24 26 24 25 26 27 28 29 28 27 26 27 30 32 32 31 30 27 27 27 25 26 26 25 24 24 26
21 18 16 14 13 15 15 17 18 19 20 22 24 27 24 23 25 25 26 26 26 26 27 28 30 29 28 28 31 28 26 26 25 26 25 23 23 25
16 16 14 14 13 14 14 16 17 19 20 19 21 22 24 26 26 25 25 27 27 28 28 29 29 28 23 21 23 28 26 25 25 24 23 23 22 23
14 14 13 13 13 12 12 12 13 18 17 17 18 18 19 24 23 23 24 22 23 24 23 25 26 27 26 24 21 23 28 26 24 21 23 24 25 26
12 12 12 12 12 12 11 11 12 16 17 15 15 15 17 21 22 23 22 23 24 22 21 20 21 24 23 24 20 17 19 27 24 22 22 20 20 21
10 10 10 11 11 11 11 11 12 12 16 15 13 13 14 16 16 17 16 16 17 17 19 20 22 23 20 18 14 14 16 18 22 22 24 23 21 18
9 9 9 9 9 10 10 9 10 12 13 14 13 12 10 11 14 13 13 14 16 17 17 17 16 16 17 15 15 15 15 16 16 17 17 24 24 24

GFSNE_sfc_dewp_021.txt.gz
Dewpoint
38 38 37 38 38 38 36 34 31 26 22 23 22 26 27 28 31 32 31 34 39 39 38 37 37 40 41 42 43 48 49 48 48 50 51 53 55 57
37 37 37 36 35 34 32 31 28 24 19 19 20 24 27 24 27 31 31 36 35 37 36 38 41 40 39 40 40 42 44 49 48 48 49 48 52 55
33 32 31 31 28 27 27 26 25 25 23 22 23 26 28 28 27 28 30 30 30 35 38 39 38 38 37 38 38 40 42 43 47 47 48 47 48 52
26 27 25 22 26 27 27 27 26 26 25 23 23 24 26 27 28 28 25 23 26 30 37 36 36 35 35 36 37 39 41 41 43 45 45 46 46 45
26 26 26 26 25 24 24 23 23 20 23 22 21 22 23 24 24 26 27 28 25 30 32 34 35 35 35 36 37 38 40 40 40 42 42 42 43 44
26 25 24 24 23 22 21 21 21 22 22 22 21 21 22 24 25 24 25 28 28 26 28 30 32 33 35 35 36 38 39 40 40 41 40 40 39 41
24 24 24 24 26 25 23 23 23 23 23 23 23 22 21 22 23 24 24 26 28 29 29 30 31 32 32 34 34 35 37 40 40 40 41 39 39 40
22 22 22 25 24 25 26 26 26 25 25 25 23 23 21 22 23 25 27 26 25 30 29 29 31 31 31 32 33 37 38 39 39 40 41 40 39 39
23 22 21 20 25 24 25 26 27 27 26 25 24 23 22 23 23 25 26 26 25 26 29 28 30 30 32 32 34 36 36 38 39 39 40 39 39 38
23 23 23 25 25 25 25 26 25 26 26 26 26 26 25 25 25 24 26 27 28 26 28 27 31 31 32 32 32 32 34 36 38 39 39 39 38 37
24 24 23 24 26 28 28 29 27 25 26 29 30 30 30 29 29 29 29 28 27 26 30 28 28 29 30 33 36 32 34 35 35 37 38 38 37 37
25 24 25 26 27 28 30 28 26 24 23 24 24 26 29 30 30 33 32 28 26 24 26 25 24 24 26 32 33 36 36 33 34 35 37 37 37 38
24 24 26 28 30 29 25 26 26 27 26 26 26 26 28 29 29 31 31 31 28 26 23 26 23 24 26 26 30 33 35 35 37 36 35 35 35 36
25 26 29 26 23 23 24 25 25 26 28 28 28 27 27 28 28 29 31 31 31 28 26 31 27 24 26 26 24 31 34 35 36 35 34 34 32 33
28 27 26 23 21 22 22 23 24 25 26 26 26 27 26 28 30 31 33 32 34 34 32 34 30 28 29 28 25 28 30 33 33 34 36 35 36 36
26 26 24 20 19 20 21 23 25 25 25 25 26 28 29 28 28 29 29 29 29 29 33 33 33 32 31 29 26 27 32 31 33 34 35 35 34 33
25 23 21 18 18 18 19 20 22 23 23 24 26 27 27 27 27 28 28 28 28 26 28 32 33 33 33 33 30 27 28 30 30 32 32 32 34 34
20 19 18 18 17 17 18 18 20 21 21 22 25 26 27 28 27 28 28 27 26 26 26 29 30 31 31 32 33 28 27 28 29 31 31 30 31 33
17 17 16 16 17 16 17 17 18 20 21 21 22 23 25 27 27 27 28 28 27 27 28 31 31 29 26 24 28 28 29 29 30 29 30 29 30 30
15 15 15 15 15 15 15 16 17 19 20 20 21 22 23 25 25 26 26 28 28 27 26 26 28 28 28 28 27 27 27 31 30 30 28 29 28 26
13 13 14 14 14 15 16 17 18 19 19 20 21 21 22 23 22 23 25 24 26 25 24 24 25 26 28 29 26 24 25 28 29 30 27 26 25 24
12 12 12 13 14 14 16 16 17 18 18 19 20 21 22 22 22 22 23 24 23 24 22 23 24 24 26 23 21 21 22 24 25 25 25 25 26 24
10 10 11 12 12 13 13 15 15 17 17 17 19 20 21 21 21 22 23 22 22 23 22 22 21 20 20 20 21 21 21 21 23 23 24 25 24 25

GFSNE_sfc_dewp_024.txt.gz
Dewpoint
39 39 38 38 38 38 38 37 35 30 28 27 27 29 27 29 32 32 32 35 39 39 40 39 36 34 34 38 41 41 42 45 48 50 48 50 50 51
37 37 36 36 35 34 34 32 30 27 23 21 20 22 24 19 27 29 29 35 35 39 38 38 37 35 38 39 38 37 37 39 42 46 49 48 48 48
32 31 29 28 27 25 26 25 25 23 21 21 21 23 26 27 26 29 30 30 30 37 36 37 37 39 40 38 37 37 36 36 38 41 44 48 46 47
27 27 25 19 25 26 24 25 25 24 22 22 22 22 24 26 27 28 25 23 26 28 37 36 37 39 37 37 36 36 36 36 38 40 41 45 46 44
25 25 25 25 25 25 24 23 22 19 21 21 20 21 22 23 23 25 25 27 23 30 33 35 36 35 34 34 35 36 36 37 37 38 39 41 43 43
26 26 25 25 25 25 22 22 20 21 21 21 20 20 21 23 23 23 24 25 25 22 27 28 31 32 34 36 36 37 37 37 37 38 38 38 39 41
23 22 24 25 26 26 23 23 23 21 21 20 23 22 22 22 22 23 23 25 27 27 28 28 29 29 30 33 32 33 34 36 37 38 39 39 39 39
22 22 22 25 24 28 28 28 27 24 23 24 23 24 23 24 23 24 26 27 27 30 30 31 32 31 29 29 32 35 36 38 39 38 39 38 38 39
23 22 19 17 25 23 26 27 27 27 27 26 25 24 23 23 24 25 27 27 26 26 29 31 34 31 33 28 33 34 36 36 37 37 37 37 38 39
23 22 22 24 24 25 26 26 26 25 26 26 28 26 25 26 27 26 27 28 28 28 30 29 33 32 33 33 33 34 34 34 34 35 38 38 39 38
23 24 25 26 26 28 29 29 26 26 25 28 29 30 29 29 29 30 31 28 30 27 30 28 31 31 31 34 37 33 33 33 34 35 36 38 39 38
25 24 26 26 28 29 30 30 28 23 24 27 26 28 28 29 30 31 31 29 28 27 27 27 28 27 28 33 33 36 37 34 34 35 35 37 38 40
24 24 26 30 27 25 25 26 25 26 25 26 27 29 30 29 29 30 31 32 29 28 25 26 28 25 26 27 31 34 35 37 37 36 34 36 36 38
25 27 29 27 24 23 23 24 24 25 29 29 29 29 29 29 30 31 32 32 32 30 27 32 30 24 25 27 26 29 33 35 37 37 38 37 35 34
27 26 27 25 23 23 23 22 25 28 27 26 27 27 28 28 29 30 32 33 32 33 32 32 34 27 29 27 26 29 32 34 35 36 36 37 36 37
25 27 26 25 25 25 25 24 27 27 26 26 26 28 30 31 29 30 30 30 31 29 35 35 34 32 30 29 27 29 34 32 36 36 37 36 38 36
24 26 23 22 23 22 22 22 24 24 25 26 27 28 28 30 29 29 28 28 29 28 27 31 34 33 33 31 31 30 30 30 33 35 35 34 36 36
22 21 21 21 21 20 21 21 23 23 23 24 26 26 27 29 29 31 30 28 28 28 27 29 31 32 32 32 33 28 32 32 32 34 33 31 31 36
19 19 19 19 20 19 19 20 20 22 23 22 23 24 24 26 27 29 30 31 30 28 29 32 31 30 27 27 30 28 31 31 35 34 32 31 30 34
17 17 17 18 18 18 18 18 19 21 21 21 23 24 24 24 25 25 26 27 29 28 28 28 29 31 30 30 31 28 27 30 34 32 30 32 30 25
15 15 17 17 16 16 19 19 21 21 21 22 22 23 24 24 23 23 24 26 25 27 25 24 25 27 30 32 29 27 27 27 29 32 32 30 29 30
15 14 14 15 16 17 18 19 19 20 20 20 22 23 24 25 23 23 25 25 25 25 24 24 24 24 27 25 26 25 26 27 27 27 27 26 28 28
13 12 14 15 15 16 15 17 17 19 18 19 20 21 24 23 23 24 25 25 24 25 23 23 23 23 22 23 25 25 24 26 28 27 26 25 25 26

GFSNE_sfc_dewp_027.txt.gz
Dewpoint
41 41 40 39 39 39 38 37 36 31 29 30 32 38 42 40 37 36 35 38 40 40 41 41 39 38 37 36 36 37 40 41 42 45 47 50 49 49
41 40 38 37 37 36 34 34 35 34 30 27 27 30 30 23 29 30 30 37 37 39 39 40 40 39 37 36 35 38 39 39 39 39 43 45 50 49
33 33 32 32 29 28 28 31 31 30 27 26 25 27 30 30 27 31 31 32 33 36 35 38 38 38 37 37 38 41 38 36 36 36 37 40 43 48
30 29 25 19 25 26 25 24 25 24 24 25 23 25 27 29 30 31 25 22 28 30 38 37 37 37 37 37 39 38 37 36 36 35 35 36 39 41
25 24 23 24 24 24 24 24 23 19 23 22 22 23 25 25 26 28 28 30 23 30 34 37 37 37 37 39 38 37 36 35 35 36 36 37 38 38
24 24 24 24 24 24 23 23 21 22 22 22 23 23 23 24 25 25 26 28 27 20 26 28 32 34 35 35 35 36 36 35 36 36 37 37 37 38
23 21 23 26 27 26 21 22 22 22 22 22 22 23 21 21 23 24 25 27 29 29 30 30 31 30 32 34 33 34 34 35 37 37 35 35 36 38
22 22 22 26 25 29 29 29 27 22 22 24 23 23 23 25 26 26 27 28 29 33 31 32 32 32 30 31 32 34 34 36 36 36 37 37 38 38
23 23 21 18 25 22 26 28 28 29 28 25 25 24 23 24 24 26 27 28 27 29 30 31 35 34 35 28 33 33 34 34 37 37 37 37 36 36
24 23 22 23 24 25 25 25 26 26 27 26 27 26 27 28 29 28 29 29 31 30 31 29 34 33 34 35 34 34 34 33 35 35 35 35 35 36
21 24 25 26 27 28 30 30 26 27 26 30 31 30 29 29 30 29 29 28 30 30 32 29 31 32 33 34 36 34 34 34 34 34 34 34 34 37
24 23 25 25 27 29 30 28 26 25 27 25 27 26 28 29 30 31 29 26 26 26 29 28 30 28 30 34 34 35 36 33 33 34 34 34 35 37
24 25 26 30 28 26 26 26 26 27 25 25 26 28 30 31 32 32 32 31 28 27 27 27 31 29 28 29 31 35 36 37 38 37 34 34 35 36
25 26 29 25 26 26 25 25 27 25 27 29 29 28 31 34 32 33 35 34 34 32 32 34 33 28 27 29 27 31 33 35 37 38 37 37 34 35
26 26 24 28 26 26 28 26 25 27 29 28 27 26 28 30 32 31 31 31 35 34 32 33 34 32 31 31 26 29 31 34 37 36 36 35 35 35
24 25 28 27 27 28 28 28 29 30 27 28 28 28 30 31 32 29 29 31 32 30 33 33 33 32 30 29 28 29 31 31 35 36 35 34 35 37
23 26 24 23 23 24 25 25 27 25 27 27 28 28 28 28 32 33 30 29 28 28 28 32 34 34 32 30 29 30 31 31 32 35 35 34 35 36
22 22 22 21 21 22 23 23 24 23 23 25 26 26 26 26 27 30 32 31 28 28 27 28 34 30 31 31 32 29 30 33 33 34 36 32 31 36
20 20 20 20 20 20 21 21 21 23 24 23 24 25 25 25 27 27 28 29 30 32 30 32 34 33 28 27 30 30 30 31 34 33 35 32 30 32
18 18 18 19 19 16 17 18 20 23 23 23 24 25 25 25 26 25 26 26 25 26 29 31 29 27 26 27 29 27 29 29 31 31 34 33 31 28
16 16 18 18 16 16 19 20 21 22 22 23 24 24 25 26 24 25 26 25 26 25 25 24 25 27 28 32 30 27 27 28 29 30 32 33 30 30
14 13 13 14 16 16 18 19 21 21 20 20 22 24 25 26 24 25 25 25 24 25 26 27 26 25 27 26 25 25 26 27 28 28 27 27 27 26
14 14 14 15 15 16 15 16 17 19 18 19 19 21 25 24 24 25 24 24 23 23 23 24 25 24 23 24 25 24 24 26 29 25 26 28 28 28

GFSNE_sfc_dewp_030.txt.gz
Dewpoint
40 40 40 40 39 39 39 37 35 31 29 30 35 39 44 44 44 44 39 41 41 41 41 41 42 40 40 39 38 37 37 37 40 42 43 45 47 50
39 38 38 38 38 39 39 38 36 34 30 30 29 30 28 28 37 38 36 40 41 40 40 40 41 41 40 40 39 37 35 34 38 39 40 41 43 45
35 34 34 33 32 32 32 34 35 35 33 32 30 28 27 27 27 32 34 32 33 39 38 39 39 39 39 39 39 38 37 36 37 38 37 38 39 41
29 28 27 23 27 27 28 27 27 27 25 23 25 26 26 27 29 30 27 24 28 33 38 38 38 38 38 38 38 37 37 39 39 37 36 35 35 36
25 25 25 25 25 27 27 26 26 24 25 24 23 24 25 26 25 26 27 28 27 33 34 38 38 39 38 37 37 37 38 38 37 36 36 36 35 34
25 25 24 24 24 25 24 25 22 22 22 22 22 23 24 24 25 25 26 28 27 24 28 29 35 37 38 38 37 38 38 38 37 36 35 35 35 36
23 23 24 27 30 28 22 23 23 23 23 22 22 23 24 24 25 26 25 26 28 30 30 29 29 30 32 37 36 37 37 37 36 36 36 36 36 37
22 22 24 28 26 29 31 31 29 26 23 22 22 21 22 23 24 25 26 26 25 30 29 28 30 30 30 31 33 35 33 34 35 37 36 36 36 35
23 23 23 21 26 24 26 27 28 30 28 27 25 24 23 23 23 24 24 25 26 27 28 28 28 30 32 30 34 35 35 34 35 35 36 37 37 36
23 21 22 24 25 26 25 26 28 27 27 27 30 28 26 27 29 31 32 31 31 30 28 27 28 29 30 32 35 36 35 34 35 35 35 36 36 35
22 23 24 23 25 27 27 26 26 26 27 29 34 33 32 32 31 28 27 25 23 24 28 30 28 28 29 30 31 34 35 34 34 34 34 35 36 35
23 23 25 25 28 29 28 27 25 24 24 27 27 26 26 26 28 29 29 27 25 23 25 25 25 27 26 29 31 31 30 34 34 34 34 34 34 33
22 22 23 27 28 26 26 25 24 26 27 26 25 25 26 27 29 30 31 31 28 26 26 27 27 25 28 27 26 30 32 33 33 33 35 35 35 34
23 23 27 24 27 27 26 27 28 27 25 25 26 27 28 30 31 33 33 34 33 31 29 32 31 30 28 27 25 27 29 31 31 28 30 34 36 35
22 24 24 27 28 27 28 29 28 27 26 27 27 28 28 28 30 31 31 31 30 32 34 32 32 30 29 28 27 26 26 27 31 32 28 32 28 32
22 21 24 26 24 25 27 28 27 28 27 27 27 28 30 29 28 33 27 25 26 29 30 30 29 30 28 27 26 26 26 25 30 34 31 29 33 34
21 23 23 21 21 21 23 23 26 25 24 25 26 26 26 27 26 26 31 28 23 23 26 30 29 29 28 27 26 27 27 27 28 30 33 31 31 33
21 21 19 19 19 20 21 21 22 24 24 24 24 25 25 24 25 26 26 25 28 27 26 27 32 29 28 27 31 27 27 27 29 32 33 31 30 33
19 19 18 18 19 19 19 20 20 23 24 22 24 23 24 24 25 26 26 25 22 23 26 32 31 28 27 25 29 30 28 29 30 29 32 32 28 28
18 18 17 18 18 16 17 18 18 21 20 21 22 23 23 24 25 24 25 25 26 25 26 25 22 23 23 22 25 23 29 28 28 26 27 31 28 30
15 17 18 18 16 16 17 17 18 19 19 19 19 20 23 25 23 25 25 24 25 25 25 23 21 23 24 25 28 23 25 27 27 25 26 30 27 27
14 14 15 16 16 16 16 16 16 16 16 16 17 18 21 23 22 24 23 23 24 24 24 25 27 26 25 26 23 19 22 23 27 28 28 27 25 23
11 14 15 15 15 15 15 15 14 14 13 14 14 15 18 19 21 23 21 22 23 18 19 21 23 24 23 24 23 19 16 21 26 23 23 28 28 28

GFSNE_sfc_dewp_033.txt.gz
Dewpoint
37 37 37 37 39 39 39 38 34 29 28 30 30 34 37 40 41 41 42 44 43 42 41 41 42 41 40 38 37 38 37 37 37 38 41 43 43 46
37 36 36 36 37 38 36 37 37 34 30 30 30 31 32 29 38 40 40 38 40 42 41 41 41 41 41 41 41 39 37 36 35 34 37 40 40 41
34 32 31 31 31 32 32 31 33 34 31 30 34 33 31 30 29 33 36 36 35 41 40 39 40 40 40 40 40 41 40 38 35 34 35 38 38 38
26 26 27 24 26 27 28 27 27 27 26 24 25 25 25 26 27 27 27 25 29 35 39 39 39 39 39 39 39 39 39 39 38 38 37 36 37 37
26 25 25 24 24 25 25 26 27 24 24 23 22 25 25 25 25 25 25 27 25 33 34 37 39 39 39 39 38 38 38 37 37 38 39 39 37 35
26 25 24 24 24 25 26 25 23 23 22 22 23 23 24 26 27 26 26 27 27 26 31 32 34 35 38 39 39 38 38 38 38 37 37 36 36 36
25 23 23 25 28 29 26 27 24 22 22 22 22 22 22 22 22 25 24 25 26 28 28 29 29 29 30 34 37 38 38 38 38 38 38 37 36 36
22 23 24 25 25 27 29 28 28 26 26 25 24 23 22 22 24 24 24 23 23 27 27 26 29 29 30 31 33 36 37 37 37 38 37 37 37 37
22 23 20 18 24 25 26 28 28 29 28 26 24 24 24 24 24 23 23 23 23 26 25 26 24 27 29 30 34 35 36 36 36 36 35 35 35 36
23 22 21 23 24 24 23 25 26 27 28 27 27 27 27 27 27 27 28 30 30 29 29 24 26 27 28 29 34 35 36 36 36 36 35 35 34 35
25 24 22 22 24 26 27 25 25 26 27 28 29 29 30 32 34 32 28 27 24 24 25 26 25 27 25 26 29 33 34 35 35 35 35 35 35 35
23 22 23 22 25 28 26 26 23 23 23 24 26 26 26 26 28 28 26 25 25 25 26 26 25 25 20 25 29 30 30 33 34 35 36 35 35 34
21 21 22 23 24 26 28 27 25 26 27 26 25 24 25 27 28 29 31 29 27 27 27 29 23 24 25 24 24 26 27 28 30 32 35 35 35 35
20 21 23 25 28 27 27 28 29 28 27 25 25 25 26 28 30 30 31 32 32 32 30 31 30 27 27 25 25 27 26 28 28 29 30 32 35 36
21 23 25 26 23 25 26 26 27 27 27 25 26 26 27 30 31 31 33 31 30 31 33 32 31 32 30 27 24 24 25 26 26 26 26 31 33 25
22 22 24 23 22 23 24 24 25 25 24 23 24 26 28 27 25 28 27 29 22 23 29 31 31 31 29 28 27 26 24 25 28 29 32 32 31 31
22 22 20 19 19 20 21 22 23 23 23 23 23 24 25 25 25 26 23 24 24 27 25 26 28 29 30 28 28 27 27 25 27 28 31 30 31 32
19 18 16 17 17 18 18 19 20 21 22 22 23 23 23 23 24 25 24 20 19 22 23 27 30 30 30 30 32 29 28 28 27 29 31 29 30 28
16 16 15 16 17 17 17 17 18 21 22 21 21 21 22 23 24 22 23 22 19 21 27 24 22 20 20 18 26 28 25 28 30 29 30 31 29 31
15 16 15 16 16 15 16 16 17 18 17 17 18 18 19 22 21 21 21 20 22 21 24 23 19 19 18 18 22 21 28 21 23 23 23 29 28 30
11 14 16 16 15 15 14 14 15 15 14 14 14 16 17 20 19 22 21 20 21 22 21 20 24 22 22 21 22 14 15 27 26 22 22 21 26 26
4 11 14 15 14 14 14 13 12 11 10 11 11 12 15 18 18 20 20 20 19 15 18 21 23 25 20 23 19 9 13 24 24 27 28 27 24 23
0 6 9 11 12 12 14 12 11 8 8 9 9 10 11 14 15 17 19 18 18 16 18 20 21 23 21 23 21 13 13 13 20 18 18 28 28 28

GFSNE_sfc_dewp_036.txt.gz
Dewpoint
35 35 35 35 36 36 36 37 35 29 27 29 30 32 34 36 39 40 41 40 40 41 42 42 41 41 43 41 39 39 38 37 36 34 34 38 41 42
37 36 35 34 34 35 36 34 36 33 29 30 30 31 33 33 33 38 40 38 39 40 39 42 43 43 41 41 40 40 38 37 36 35 33 33 37 39
28 27 27 28 27 27 28 28 29 30 28 28 31 33 31 27 27 30 36 38 38 38 38 39 42 42 41 41 41 42 41 40 38 35 33 33 34 37
26 26 25 22 24 25 26 26 26 26 26 23 25 24 23 24 25 26 25 23 29 35 38 38 38 39 40 40 40 40 40 40 40 39 36 34 33 34
25 25 24 24 23 23 24 25 26 25 25 23 22 24 24 25 25 26 26 27 26 31 33 35 38 38 40 40 39 39 39 39 38 38 38 39 38 35
25 25 24 24 23 24 25 26 26 24 23 22 22 23 24 24 24 24 23 26 25 25 29 30 32 33 33 35 38 39 39 39 38 38 37 37 37 38
24 23 23 24 23 24 24 27 27 25 25 25 23 22 22 21 21 21 22 23 25 27 27 27 28 29 30 32 33 37 38 38 38 38 38 37 36 37
22 22 23 23 21 24 26 27 27 25 24 23 23 23 23 22 23 23 23 22 20 26 26 25 27 27 28 31 33 34 36 37 37 38 38 37 37 37
23 22 22 20 23 23 25 26 26 27 27 27 26 25 23 24 24 23 23 22 22 24 25 24 23 25 27 28 33 34 35 35 36 36 36 36 36 35
25 24 23 22 23 22 23 25 26 26 26 27 27 27 27 26 26 27 26 24 27 29 27 24 22 24 25 28 32 33 34 36 36 36 36 36 35 34
24 23 21 21 23 24 26 25 24 24 24 25 25 26 28 31 29 28 28 27 25 24 24 24 24 22 23 26 27 31 34 35 35 35 36 36 35 35
22 21 21 20 23 25 25 24 23 23 23 23 23 25 26 26 27 26 25 23 22 22 25 24 23 23 20 23 27 28 29 33 34 35 35 36 36 34
20 19 20 23 26 26 25 25 26 26 27 26 26 25 25 26 27 29 29 28 26 25 27 28 23 22 26 22 22 23 24 24 26 29 34 35 36 36
19 20 23 26 23 23 25 27 27 26 26 26 25 25 26 27 29 30 31 32 32 29 29 31 28 25 22 21 22 23 22 24 23 25 26 31 34 35
21 23 24 21 22 23 24 25 24 24 24 23 23 25 27 29 29 29 31 31 31 32 32 32 31 30 29 27 27 26 24 22 20 21 20 24 29 29
22 22 22 21 20 22 22 23 23 23 23 22 23 25 27 26 26 27 26 24 25 26 27 30 32 31 29 27 26 26 26 25 20 28 29 23 30 31
16 15 18 17 17 18 18 20 21 22 21 22 22 23 23 24 25 24 22 22 22 23 24 26 27 31 31 31 27 27 26 27 24 25 25 29 30 31
14 10 14 15 15 16 16 17 18 19 19 20 20 20 20 22 23 22 21 17 17 20 23 27 26 29 29 29 32 29 29 28 23 24 28 30 29 31
9 9 11 13 15 15 15 15 15 16 17 17 17 18 18 19 21 20 20 21 18 20 25 21 18 17 15 13 25 27 24 22 27 28 27 29 28 30
10 7 11 14 14 14 14 14 14 13 13 13 14 15 16 18 18 20 20 18 17 20 22 21 19 19 17 15 19 20 27 17 20 17 23 26 25 30
8 9 7 14 13 13 12 12 9 9 8 8 10 11 13 16 16 18 17 17 14 19 17 16 18 21 21 17 16 15 12 25 25 23 21 21 23 26
2 6 7 9 9 11 11 9 9 7 7 7 7 7 9 13 14 16 16 13 15 13 15 19 22 23 20 23 17 12 18 23 25 25 26 26 23 20
-2 2 1 1 6 7 11 9 8 4 6 6 7 7 7 9 12 12 12 12 13 11 14 16 18 22 22 22 22 12 11 11 15 17 13 26 28 28

GFSNE_sfc_dewp_039.txt.gz
Dewpoint
35 35 36 35 36 35 35 36 32 27 25 27 29 32 33 35 36 35 38 40 38 39 40 40 43 41 43 44 44 40 41 40 38 36 36 38 40 41
34 33 31 31 30 30 30 31 30 28 24 28 29 31 32 32 29 30 35 39 39 39 37 38 40 42 42 41 41 41 41 38 37 35 33 32 33 37
26 26 26 26 26 26 26 27 26 27 24 24 29 30 30 24 24 27 28 30 37 39 38 37 37 39 41 42 41 40 38 38 39 36 35 34 33 34
24 25 25 22 24 24 24 24 24 25 25 23 25 25 23 22 24 25 25 26 28 32 35 39 38 38 39 41 40 40 41 40 40 40 37 35 33 33
24 24 23 23 23 23 23 24 25 26 26 25 24 23 24 25 24 24 24 25 25 26 30 32 33 37 39 38 38 39 39 40 40 40 39 38 37 35
25 24 23 23 23 23 23 26 26 27 26 25 24 23 24 24 24 23 21 24 24 23 26 30 31 32 34 35 39 39 39 39 39 39 37 37 37 38
24 23 23 24 25 23 20 22 23 25 24 24 24 24 23 22 22 21 21 22 23 25 24 26 27 29 29 31 32 35 39 39 39 38 37 37 36 37
23 23 23 25 23 23 23 24 24 23 23 23 22 22 23 23 22 22 22 21 20 24 24 23 26 26 27 29 31 33 34 35 37 38 38 37 37 37
24 24 23 21 22 21 23 24 24 26 26 25 24 23 23 24 23 22 22 22 23 24 24 24 22 24 27 27 31 33 34 35 35 36 36 37 36 36
23 23 23 21 22 21 23 24 24 25 25 25 25 26 27 27 25 25 25 25 24 25 28 25 23 23 25 26 29 30 32 35 35 35 36 35 35 35
21 21 20 19 21 24 24 23 23 23 24 26 26 25 26 26 29 29 27 25 22 23 24 24 23 21 21 24 26 29 30 34 34 35 36 36 35 35
20 19 20 21 23 27 25 24 22 22 24 24 24 24 25 25 26 25 23 23 22 19 24 23 23 23 18 21 23 24 25 32 34 35 35 35 36 34
19 19 21 23 23 22 24 25 25 26 25 26 26 26 27 26 26 26 26 25 23 22 26 25 22 21 24 21 21 22 24 23 25 27 33 35 36 35
20 21 23 21 21 22 23 24 25 24 24 24 25 25 26 27 28 29 29 30 30 28 28 29 26 24 25 21 23 23 22 20 21 21 21 28 32 35
22 20 20 19 20 21 21 23 23 22 22 21 21 23 25 27 28 29 30 31 32 32 32 32 31 30 29 27 26 26 27 25 19 18 19 20 23 29
18 18 17 19 19 19 19 21 21 21 21 21 21 23 25 26 26 28 26 26 25 25 28 28 31 32 29 29 29 27 28 26 21 19 28 21 27 28
10 9 12 14 15 16 16 18 19 19 18 19 19 19 20 22 24 26 24 22 20 22 24 25 28 31 31 31 28 27 25 26 24 23 24 21 23 27
11 5 1 2 11 14 14 14 15 15 15 17 17 17 17 18 21 23 22 19 17 21 23 24 21 26 29 27 30 29 28 27 26 25 23 27 26 26
6 3 -2 3 6 13 13 13 12 11 13 13 14 14 15 17 19 20 19 19 19 22 23 24 22 16 14 10 20 27 24 22 18 17 25 28 27 26
8 3 1 4 6 12 12 12 11 9 8 9 10 11 12 14 16 17 17 14 15 17 19 20 19 22 21 18 19 17 26 23 22 20 17 18 23 29
7 7 2 4 5 9 8 8 5 5 6 4 7 7 7 11 13 15 15 11 11 17 15 14 16 21 22 18 13 14 17 24 24 23 23 20 21 25
1 5 5 5 0 1 1 2 6 3 4 5 5 5 5 8 11 12 13 12 12 12 14 17 19 21 18 20 16 13 20 22 24 24 25 26 18 16
-1 3 -1 -3 -2 -2 4 1 2 -2 3 5 4 5 4 5 10 9 9 10 11 10 11 14 16 19 18 19 19 15 9 14 16 15 12 23 27 28

GFSNE_sfc_dewp_042.txt.gz
Dewpoint
34 33 34 35 36 35 34 34 30 25 23 23 27 32 34 35 35 35 34 35 40 40 39 38 39 40 43 45 45 45 48 45 43 43 44 44 45 46
31 27 27 28 27 29 28 30 30 29 24 24 22 29 31 30 33 31 31 31 33 39 40 37 37 38 40 42 43 42 43 43 39 38 36 38 41 41
25 25 25 26 26 25 26 26 25 26 23 22 26 27 28 30 27 26 29 30 32 32 36 38 38 37 37 39 41 40 40 40 41 39 36 35 35 38
24 24 25 22 22 23 23 23 23 24 24 23 25 26 26 26 25 25 24 22 27 26 33 33 36 39 37 37 39 41 41 39 39 39 39 37 34 35
24 24 24 22 21 23 23 23 24 25 27 27 25 25 24 25 25 25 24 25 23 25 27 30 32 33 38 38 39 39 39 40 39 39 39 39 39 38
25 25 24 23 22 22 22 21 22 23 23 23 23 23 25 25 25 23 23 23 23 22 25 28 28 30 32 35 38 38 38 39 39 40 39 38 37 38
25 25 24 25 27 25 23 23 21 21 21 22 21 21 22 23 22 23 22 22 23 25 24 25 26 27 30 30 31 34 38 39 39 39 39 38 37 37
25 25 24 24 24 24 23 23 22 21 22 21 21 21 21 22 23 23 22 22 22 25 25 25 27 25 26 28 29 32 34 35 38 39 38 38 37 37
21 21 20 19 21 21 22 23 23 24 24 25 25 24 24 24 24 24 23 23 23 24 25 25 26 27 28 27 30 32 34 34 35 36 37 37 37 36
20 20 20 20 21 20 21 23 23 23 23 23 23 23 25 25 26 26 26 25 26 25 25 24 27 26 28 28 29 30 30 32 34 35 35 35 36 36
19 20 20 20 22 25 26 24 22 22 23 25 28 27 27 27 27 27 26 25 23 23 26 26 25 25 25 27 28 29 30 31 33 35 35 35 35 35
20 20 21 21 23 22 23 23 21 22 23 24 25 26 26 26 27 26 25 23 22 21 23 25 23 24 23 25 26 28 29 30 32 34 35 35 35 35
20 20 21 22 21 22 23 23 24 25 23 24 24 26 28 28 28 27 26 25 23 21 24 25 24 24 26 25 26 27 27 28 30 33 34 35 35 35
20 21 21 20 19 20 21 23 23 23 23 22 22 22 24 25 27 29 30 28 27 25 26 29 28 26 26 24 24 26 27 27 27 28 29 28 31 35
21 18 18 18 18 20 19 21 21 21 20 19 19 20 22 25 27 28 29 32 31 30 30 32 30 28 28 26 26 26 27 28 26 27 27 28 30 31
17 16 15 18 15 17 17 18 19 19 18 18 18 20 22 23 24 27 26 27 26 28 31 31 32 32 30 29 29 28 28 26 27 28 28 28 29 30
9 8 11 10 12 14 15 15 16 14 14 16 17 17 18 20 22 25 25 24 23 24 26 28 30 31 33 31 28 28 28 28 29 29 28 27 28 30
10 4 -2 -3 4 11 13 12 13 10 11 13 15 14 15 16 19 21 22 21 21 23 24 25 24 27 29 28 30 29 29 28 27 27 27 26 26 29
6 3 -6 -6 0 10 12 12 11 9 10 10 11 12 12 14 17 18 19 19 19 20 21 23 24 22 19 18 21 27 25 24 22 23 24 27 27 27
8 4 0 0 5 9 11 10 9 8 7 7 8 8 9 12 14 15 16 14 15 17 17 19 20 21 21 20 22 23 26 24 22 22 22 23 24 25
7 8 4 5 6 6 0 1 1 5 5 4 5 6 5 8 11 12 14 12 11 13 14 15 17 20 22 23 21 21 23 24 24 23 22 22 21 24
4 7 7 6 3 2 -4 -7 -2 1 5 5 5 5 5 6 9 10 11 10 11 12 12 15 19 22 22 22 21 18 22 23 23 24 24 26 23 20
4 5 4 0 0 -1 4 -1 -2 -6 1 4 5 6 5 5 8 8 9 10 10 10 11 13 14 17 20 20 20 19 18 21 22 22 22 22 26 27

GFSNE_sfc_dewp_045.txt.gz
Dewpoint
39 38 37 37 36 33 33 30 29 26 22 24 23 26 26 28 30 32 31 34 34 35 37 39 39 37 37 41 43 46 46 52 51 51 52 52 52 53
35 31 30 29 29 30 28 28 28 26 23 20 19 22 24 22 25 27 28 33 32 34 35 36 38 38 37 39 41 42 44 45 45 47 48 47 48 49
29 27 27 27 25 24 23 22 22 23 20 19 19 22 25 26 25 27 28 29 27 32 32 31 34 37 38 37 40 41 41 42 42 42 37 39 41 42
26 26 25 22 24 23 21 20 20 20 19 17 19 21 22 25 26 27 25 23 24 27 29 30 30 31 36 37 39 39 40 40 41 40 40 39 35 35
25 25 24 24 23 22 22 21 21 19 20 20 19 18 19 22 23 24 25 27 24 27 29 30 28 30 31 35 38 38 39 40 40 40 39 38 37 38
26 26 25 24 24 23 22 22 23 21 20 19 17 16 17 19 19 21 20 22 23 22 24 27 29 28 29 31 35 39 39 39 40 39 38 38 38 37
26 24 24 25 26 24 21 20 21 19 17 17 15 15 16 16 16 18 19 20 22 23 23 22 23 24 25 28 31 33 38 39 39 39 39 39 38 38
19 17 16 18 18 21 21 22 21 20 20 19 19 18 18 16 18 19 20 21 21 24 25 24 26 25 26 27 31 30 31 35 38 38 39 38 38 37
16 14 14 15 19 18 19 21 21 23 25 27 25 22 18 18 18 21 21 22 20 20 26 25 27 27 27 24 30 31 31 33 34 36 38 38 37 37
16 16 16 17 18 20 21 26 21 19 19 20 26 26 25 24 23 23 24 25 25 24 25 23 27 28 30 30 29 30 30 31 33 34 35 37 37 36
18 18 18 19 21 23 24 22 20 18 20 23 24 25 28 28 30 30 28 25 23 23 26 27 25 27 28 30 32 29 30 30 32 33 34 35 36 36
20 17 19 19 21 22 23 23 21 19 19 20 21 22 24 30 29 29 26 25 21 24 23 24 22 22 26 31 31 33 33 30 31 33 34 35 35 33
19 17 18 19 20 20 20 21 23 22 21 21 21 21 23 25 28 31 31 29 24 21 21 23 22 26 26 28 30 32 34 34 34 33 33 34 35 33
20 19 19 18 18 18 19 19 21 21 21 21 21 21 21 23 25 26 29 32 30 27 25 27 28 28 28 28 27 30 32 34 34 34 34 33 34 35
21 18 17 17 16 17 16 17 18 19 18 19 19 19 21 23 25 27 29 33 33 31 30 32 30 30 30 27 26 28 26 31 33 34 34 34 33 34
19 16 16 16 15 15 16 16 17 15 15 17 18 20 22 23 24 27 27 28 30 31 34 33 32 33 31 31 29 28 28 28 31 33 34 34 33 33
18 17 14 14 13 12 14 14 13 10 12 16 18 18 19 20 22 25 25 26 27 27 29 31 31 34 34 33 31 28 29 30 31 32 32 30 32 33
16 16 15 15 14 11 13 13 12 9 11 14 16 17 17 19 20 22 23 23 23 24 25 27 28 32 31 30 30 29 29 30 29 29 28 27 27 30
17 16 17 15 14 11 10 11 10 10 9 13 14 15 16 18 19 19 20 20 21 21 22 25 25 25 24 24 26 28 28 28 28 29 28 27 27 27
17 16 16 16 13 10 9 9 8 10 9 10 14 14 15 16 17 18 18 18 18 17 18 19 22 23 23 23 23 28 26 28 28 27 27 28 28 26
19 17 17 16 14 12 14 13 13 12 10 10 13 12 14 14 15 16 17 15 15 14 16 18 21 23 24 27 26 26 28 25 25 26 25 26 26 25
22 19 17 16 17 15 15 14 14 13 10 9 12 13 13 13 14 14 16 15 14 16 17 19 21 23 25 23 24 25 26 26 25 23 25 25 25 23
23 21 21 19 18 17 14 14 13 14 10 8 11 12 12 12 12 13 13 12 12 14 16 16 19 21 22 21 23 25 24 24 26 25 27 23 25 26

GFSNE_sfc_dewp_048.txt.gz
Dewpoint
38 37 34 29 29 27 26 25 26 24 19 20 19 22 21 22 25 26 26 30 33 35 35 33 33 34 36 38 38 38 42 45 46 51 54 55 55 54
33 31 29 26 25 25 22 22 22 21 18 17 17 20 21 17 23 26 26 32 31 33 35 33 34 34 34 37 38 37 40 43 44 46 52 53 54 54
31 29 27 27 25 24 24 22 21 20 17 18 17 19 21 22 21 25 26 25 25 34 35 32 31 32 32 33 38 38 40 41 43 42 44 49 53 53
28 27 26 21 25 25 22 22 21 21 19 18 19 18 20 21 21 22 21 20 22 26 32 27 29 30 31 34 35 38 39 40 40 41 42 42 43 46
27 27 26 25 24 23 23 21 21 18 20 20 19 19 18 19 19 21 22 23 19 28 31 30 31 30 29 30 32 36 39 39 39 39 40 40 39 39
28 28 26 24 24 23 21 20 18 17 18 21 20 17 17 18 18 17 18 20 21 18 26 29 28 28 30 29 31 32 37 39 39 39 39 39 38 38
26 23 22 21 21 21 19 19 19 18 17 17 16 17 17 17 17 17 17 18 21 21 22 23 23 23 25 31 29 32 34 39 38 39 39 39 38 39
20 20 18 19 18 21 21 21 21 19 18 18 19 19 20 19 19 20 23 20 22 23 26 26 24 26 23 24 31 30 30 32 38 39 39 39 39 38
20 18 16 13 20 18 20 21 23 26 27 28 25 22 23 24 22 22 20 20 21 22 25 28 27 26 26 21 29 28 30 32 32 35 38 37 37 37
21 20 19 18 19 21 18 22 20 20 20 18 22 24 23 22 23 25 28 26 25 22 23 24 27 27 28 28 31 30 31 31 31 33 34 37 37 37
21 20 19 19 20 21 22 23 21 20 20 22 23 24 25 25 27 31 27 26 26 25 24 28 25 26 26 30 33 32 31 31 31 33 33 34 36 37
22 19 22 19 19 19 21 23 22 20 18 19 20 20 22 24 27 31 28 26 23 24 21 29 22 21 24 28 29 32 34 31 31 32 32 33 35 34
22 19 19 19 18 19 19 21 22 20 20 21 21 21 23 24 24 26 28 31 29 26 22 24 21 22 24 28 30 31 33 35 34 33 32 33 35 33
23 21 21 18 17 17 19 17 17 19 23 21 21 21 22 22 23 25 28 29 32 32 29 30 26 26 28 27 25 29 31 33 33 33 35 34 34 35
24 21 19 16 16 17 16 16 17 19 18 19 20 20 21 24 26 29 30 32 34 35 30 32 30 29 30 28 29 27 28 30 32 33 33 34 34 33
23 21 19 18 17 16 17 17 19 17 16 18 19 21 22 24 26 27 27 27 31 33 33 34 33 32 29 30 28 30 28 30 31 33 32 34 36 36
22 23 20 18 15 14 16 16 16 14 13 17 19 19 19 20 22 26 25 25 28 27 30 33 34 34 34 34 32 28 28 30 32 33 31 30 31 34
20 22 23 22 19 15 16 16 16 13 11 13 17 17 17 19 20 23 23 24 25 25 26 27 29 34 31 30 29 32 31 32 30 30 29 29 29 31
21 21 24 23 21 16 14 13 14 14 13 12 15 16 17 17 20 21 21 21 22 21 23 24 25 25 25 28 27 27 31 28 29 29 28 28 28 30
21 22 22 22 20 14 13 12 13 16 15 12 15 16 17 17 17 17 19 19 18 18 18 20 23 24 25 26 27 29 26 30 28 26 26 28 29 26
22 21 22 21 19 17 19 19 18 18 16 16 16 15 17 15 16 16 16 16 16 15 18 20 22 23 25 27 27 28 28 25 26 28 26 26 26 26
25 23 22 22 22 20 21 20 19 19 17 15 16 17 17 16 15 15 16 16 14 16 19 21 23 24 26 23 28 28 26 27 25 23 25 25 27 27
27 26 25 24 24 23 19 19 17 19 16 14 15 16 16 15 14 14 15 14 13 15 17 19 22 24 24 22 23 27 26 25 26 26 27 24 25 25

GFSNE_sfc_dewp_051.txt.gz
Dewpoint
38 39 35 34 31 27 26 26 26 25 20 21 21 22 23 25 27 28 29 30 34 34 33 34 32 33 32 32 33 35 36 38 39 41 45 46 50 54
35 34 32 30 28 27 25 25 24 22 20 19 19 23 24 16 23 27 27 33 32 34 34 34 35 34 32 32 33 35 37 38 39 40 44 44 48 53
33 33 31 29 28 26 26 26 22 23 21 21 21 24 25 25 23 26 26 27 26 30 32 34 34 33 31 31 31 32 33 37 39 39 42 43 45 49
32 32 30 25 28 26 24 22 22 22 21 20 21 21 21 25 24 25 20 17 23 25 30 33 31 32 33 33 32 34 34 36 39 39 40 42 42 44
31 29 28 28 25 22 23 22 22 17 21 20 19 21 22 23 21 22 21 23 19 27 29 30 32 33 34 33 33 33 33 34 38 39 39 40 40 41
30 29 26 23 22 23 19 19 18 18 18 18 17 16 18 19 21 19 20 22 22 18 24 27 31 31 32 34 33 33 33 34 36 39 39 38 39 40
27 22 22 22 21 20 17 19 19 17 17 15 15 17 16 17 20 22 21 21 24 25 22 22 24 26 28 32 31 33 34 34 37 39 39 39 38 38
21 21 21 23 22 24 25 24 21 17 17 19 19 20 21 19 21 26 26 24 23 27 27 27 27 27 26 30 31 30 31 30 33 37 38 39 39 38
22 21 19 15 22 20 22 22 22 25 26 26 25 21 23 26 24 23 22 22 23 26 27 28 30 29 30 22 32 30 30 30 31 33 38 38 38 38
23 22 21 20 21 21 19 18 19 20 21 20 22 22 22 21 22 22 25 27 28 26 26 25 28 28 30 29 30 32 32 32 32 32 34 36 37 37
23 22 21 19 21 21 19 20 19 19 20 23 22 22 23 24 25 28 27 28 27 25 28 28 29 28 30 30 32 32 33 33 33 33 33 33 35 37
23 21 24 20 19 19 20 21 20 19 15 17 19 21 22 23 27 27 29 28 27 26 26 27 26 27 26 30 31 33 35 33 33 32 32 33 33 34
23 22 22 21 20 18 18 20 22 18 17 20 21 21 23 24 25 27 28 28 26 26 28 29 24 24 23 26 33 33 35 35 34 32 33 33 34 32
24 23 24 22 20 17 18 18 18 19 22 19 19 20 21 22 24 26 28 30 30 29 32 32 28 23 25 27 26 30 33 35 36 36 37 34 34 34
25 24 22 21 19 19 17 17 19 20 18 17 18 19 20 23 25 28 29 30 30 33 35 33 30 27 28 27 29 32 29 31 33 35 36 34 35 35
27 26 23 22 22 21 20 19 20 20 17 16 17 18 21 21 22 24 26 27 28 32 31 31 31 31 28 28 29 30 31 29 32 34 33 35 36 36
24 24 23 22 20 19 18 17 18 17 16 16 17 16 16 18 20 23 24 25 25 26 28 32 34 33 31 31 30 30 33 31 31 33 32 30 34 36
23 22 24 26 23 21 19 18 18 16 15 15 16 16 15 16 17 21 22 22 23 23 24 26 26 31 31 29 29 31 34 34 32 31 30 31 33 34
23 22 25 25 25 21 19 17 17 17 17 15 15 16 17 16 19 19 20 21 20 19 22 25 25 25 25 27 27 28 31 29 30 30 30 30 31 33
23 23 23 25 23 20 18 16 17 19 19 17 17 18 17 16 17 16 16 18 18 17 18 22 28 22 22 24 26 28 27 30 30 28 28 30 31 27
24 26 27 25 23 22 23 22 21 20 20 19 18 17 18 16 15 15 15 16 16 15 18 19 21 25 24 27 26 26 26 26 27 29 27 28 30 27
28 25 26 26 25 24 24 24 22 21 20 19 19 19 19 17 16 15 16 15 14 15 18 20 25 26 25 24 26 26 26 28 25 24 25 25 26 27
30 28 29 29 27 26 23 22 21 21 19 18 18 18 18 17 16 16 15 14 13 13 13 18 21 26 24 21 23 27 25 25 26 25 26 24 25 25

GFSNE_sfc_dewp_054.txt.gz
Dewpoint
39 39 38 38 36 33 30 28 27 24 22 23 23 23 26 26 27 26 26 32 36 35 35 35 34 32 32 33 34 33 34 34 36 37 39 40 41 45
37 36 35 35 32 31 28 28 27 25 22 22 21 23 24 22 26 25 25 32 32 34 34 33 34 33 34 33 34 33 32 32 32 35 37 39 40 44
34 34 34 33 31 30 30 28 26 26 22 22 23 23 23 24 23 25 26 23 23 30 33 32 33 33 33 35 34 32 32 30 30 32 36 38 39 43
34 33 32 29 30 29 28 26 25 23 21 19 19 20 21 23 23 24 21 19 21 25 30 32 32 32 34 34 34 35 34 32 33 32 34 38 40 42
32 32 30 29 28 26 24 22 21 19 21 19 18 19 20 22 21 22 21 22 21 26 28 30 31 31 32 35 35 35 34 34 34 34 35 38 39 40
32 31 30 27 23 21 19 19 18 19 19 18 17 17 18 19 21 20 22 23 23 21 25 27 30 30 31 34 34 34 34 34 34 34 36 38 38 39
30 27 24 25 26 22 16 19 20 20 19 16 17 17 19 20 21 21 22 26 25 26 25 25 25 26 27 30 31 34 34 34 34 35 37 38 38 38
25 24 23 25 26 25 27 25 24 20 19 19 21 22 22 19 23 27 25 22 20 25 26 25 28 27 27 28 31 33 33 34 35 34 36 38 38 38
25 24 21 18 26 22 23 23 21 22 23 23 22 24 26 25 23 21 19 19 20 23 24 24 26 26 28 24 30 33 33 34 33 33 33 37 35 38
25 24 23 22 22 21 20 20 18 19 20 19 23 25 22 20 21 21 23 24 24 24 26 25 26 26 27 28 32 32 33 33 33 33 33 33 37 38
25 25 24 22 21 22 21 20 19 19 20 21 19 20 23 24 24 25 24 24 22 25 28 29 26 26 27 27 29 32 32 34 34 34 33 33 33 37
25 24 24 21 21 20 19 18 18 19 18 17 18 21 23 23 26 27 28 25 25 21 26 26 27 27 25 29 31 30 29 33 34 34 34 33 33 34
27 25 25 22 21 21 19 19 19 20 19 19 21 19 23 24 25 25 25 23 23 23 25 28 28 28 25 25 31 33 31 29 29 30 33 34 34 32
25 25 26 24 23 21 19 19 20 21 20 19 18 19 20 22 23 24 26 28 29 29 30 32 30 28 25 25 25 31 33 32 30 28 27 31 34 33
26 26 26 24 25 23 22 22 20 20 20 14 16 17 19 22 23 24 25 25 26 28 33 33 31 28 26 25 25 29 31 29 29 28 26 29 28 26
26 26 26 23 21 21 21 22 22 21 18 16 16 17 19 20 20 22 22 24 24 26 31 32 31 31 26 25 27 27 28 30 28 26 25 25 27 29
24 23 22 22 23 22 22 21 21 21 18 17 15 17 17 18 18 20 21 23 22 22 23 27 32 32 30 30 28 28 29 32 31 29 26 24 27 30
23 21 19 20 24 21 19 19 19 18 19 17 16 16 17 17 17 18 21 22 21 20 20 22 25 27 30 28 28 28 31 32 32 29 28 30 30 32
24 20 19 23 22 24 20 20 17 18 18 18 16 15 16 17 17 18 19 19 18 19 19 22 27 23 22 22 26 28 28 28 27 24 26 26 30 30
25 23 22 23 25 23 21 20 19 16 16 18 12 15 12 13 16 16 17 17 17 16 18 21 23 22 21 21 23 25 27 25 25 26 26 28 28 28
24 26 24 24 26 23 21 21 17 14 13 10 12 14 16 14 11 16 16 15 15 16 16 19 21 25 25 25 23 24 23 26 26 24 26 23 27 24
25 24 25 25 26 25 24 23 19 16 15 16 12 9 17 10 11 11 14 15 16 16 15 17 21 26 27 25 25 22 25 22 24 26 26 25 20 22
26 26 26 26 26 25 23 20 22 16 15 14 12 12 10 8 12 11 12 15 16 15 13 13 19 21 27 24 25 24 19 19 21 22 19 26 26 26

GFSNE_sfc_dewp_057.txt.gz
Dewpoint
36 37 37 38 38 36 32 29 28 23 23 24 24 24 25 25 27 27 25 29 34 34 34 32 30 29 30 31 31 32 33 34 34 34 34 35 38 39
35 34 34 35 33 31 29 29 28 26 23 24 23 23 24 23 25 27 25 28 29 31 32 34 34 30 29 30 30 30 31 35 34 33 33 33 34 38
33 33 33 31 31 30 30 30 27 24 21 21 22 22 21 22 24 25 26 25 25 30 31 32 32 33 34 33 33 32 33 33 33 33 33 33 33 35
32 32 32 30 29 29 26 22 21 20 20 18 20 20 20 21 22 22 21 19 22 25 30 32 32 32 33 33 34 34 34 34 33 33 32 31 31 32
32 30 30 29 26 22 20 19 19 18 20 20 19 19 18 20 20 21 22 23 23 26 28 29 30 31 32 32 32 34 34 34 34 35 34 33 32 32
31 31 30 25 20 18 18 17 18 20 20 19 18 17 18 19 21 21 21 23 25 25 26 28 30 29 30 31 32 32 34 34 34 35 34 34 34 35
28 27 25 24 27 21 17 19 20 19 19 18 17 18 19 20 21 20 25 25 22 24 23 22 26 25 25 29 29 31 32 34 35 35 35 35 35 36
25 25 22 25 25 26 25 24 23 19 18 19 19 20 20 21 27 23 22 19 16 22 23 22 24 23 25 27 30 32 33 35 34 34 35 35 36 37
25 23 22 23 24 21 21 21 20 20 21 21 20 20 23 23 22 20 19 20 20 22 23 23 25 25 27 25 30 31 32 33 33 34 34 34 34 36
24 23 23 22 22 21 20 20 19 19 20 18 21 20 20 19 21 21 23 23 24 23 25 24 24 26 27 27 30 31 32 32 33 34 34 33 33 36
25 24 25 22 22 21 20 19 18 19 19 22 21 22 23 24 24 24 24 24 21 22 25 23 23 25 26 28 28 30 32 33 33 33 34 33 33 34
25 25 24 21 21 21 19 16 16 17 20 19 19 20 22 22 25 26 25 22 22 20 23 21 22 24 24 26 29 31 31 33 34 33 33 34 33 31
26 25 24 23 22 22 22 19 17 19 21 20 20 20 19 22 23 24 24 25 24 24 25 27 25 26 27 25 27 30 32 32 28 31 34 34 33 32
25 25 25 26 25 24 23 23 22 22 16 17 18 17 18 18 20 22 24 25 25 25 26 30 29 28 27 25 25 29 31 33 31 27 27 30 33 33
26 26 26 27 25 26 26 26 23 20 17 13 15 16 17 19 21 22 22 23 24 26 27 32 31 31 29 26 26 26 29 32 30 31 30 24 25 25
27 26 24 25 23 22 22 23 21 19 17 18 14 15 18 19 19 19 19 20 23 22 25 26 30 30 27 27 27 26 27 28 32 26 23 23 25 25
27 24 23 21 21 22 22 22 21 20 17 14 13 14 16 18 17 19 19 21 21 20 20 22 24 28 31 29 25 25 25 25 32 27 25 23 26 26
25 15 13 11 15 20 22 20 19 17 17 16 12 15 14 15 16 18 19 19 18 18 18 20 25 23 27 27 28 27 29 30 30 29 27 27 30 31
25 19 14 15 17 20 24 20 18 18 17 16 13 11 12 15 13 16 18 17 16 16 17 21 23 22 18 15 27 28 27 29 27 22 24 27 28 30
26 24 20 19 20 22 23 20 18 16 13 14 8 6 4 10 9 13 15 15 16 16 15 17 20 21 22 18 22 22 27 24 24 23 25 27 28 30
24 24 24 22 22 22 23 20 14 10 7 4 5 6 5 9 7 11 12 13 14 16 14 13 15 20 26 22 19 20 20 26 25 22 24 24 26 25
25 24 24 24 24 25 25 21 16 11 9 7 7 7 0 4 4 5 6 9 15 16 14 13 16 22 26 26 23 17 20 17 23 26 27 25 22 20
26 26 26 25 25 24 24 22 20 16 15 12 9 6 -1 3 5 7 6 13 13 15 12 12 15 19 22 22 24 17 15 17 20 22 21 26 27 27

GFSNE_sfc_dewp_060.txt.gz
Dewpoint
35 35 36 36 36 37 36 34 31 24 24 24 24 24 25 25 27 27 26 29 34 31 30 28 28 28 29 30 30 31 31 31 31 32 35 35 35 35
33 33 33 34 33 31 30 30 30 32 27 24 22 22 22 20 22 25 25 27 28 30 32 30 28 28 28 28 29 29 30 30 30 31 33 36 35 35
32 32 33 32 31 31 32 32 27 23 20 20 21 21 20 20 20 22 24 23 24 27 30 30 32 32 31 31 32 30 30 31 31 31 34 34 35 35
30 32 32 31 29 27 24 21 20 19 19 17 19 19 19 19 20 21 20 20 23 25 27 29 28 28 30 32 33 34 33 33 33 32 32 33 33 34
31 31 30 29 27 23 20 19 19 18 20 19 19 19 19 19 19 20 21 23 23 26 26 26 25 26 27 30 33 33 33 33 34 34 35 35 34 33
32 31 30 29 24 20 18 17 18 19 19 19 18 17 18 20 21 21 22 23 24 22 22 23 24 26 29 28 27 28 31 33 33 34 34 35 35 35
30 29 26 24 25 22 18 19 20 18 18 17 16 18 18 19 19 23 22 21 20 20 19 20 24 22 23 26 27 29 29 31 33 33 34 34 35 35
32 30 26 25 27 27 26 24 22 18 18 17 17 18 18 20 24 21 19 19 18 21 22 21 24 23 24 25 28 29 30 31 33 33 33 34 35 36
27 25 22 23 26 24 24 22 20 20 21 19 18 19 20 20 19 19 19 20 20 21 24 22 23 23 25 26 29 30 31 32 33 33 33 33 34 34
25 24 23 23 22 22 20 20 19 18 18 17 20 20 19 20 21 22 25 25 25 24 24 21 22 23 25 26 29 31 32 32 33 33 33 33 33 33
26 25 24 24 24 24 22 20 19 18 16 20 21 22 23 22 23 24 22 21 19 20 23 22 22 23 23 25 27 30 32 32 32 32 33 34 34 33
26 25 27 22 24 23 21 19 17 17 17 20 19 20 22 21 23 23 23 20 20 19 21 23 22 24 23 23 26 27 28 32 32 32 34 34 34 31
25 25 25 25 24 24 24 21 18 19 20 21 20 20 20 20 20 21 22 22 21 20 22 25 24 24 26 25 24 26 29 30 32 32 33 34 34 32
26 26 26 26 26 26 26 25 25 24 19 18 17 18 18 18 19 20 22 22 23 23 24 26 26 28 27 23 23 26 28 30 32 26 24 30 34 33
27 26 26 27 27 27 27 27 24 22 19 11 16 16 17 17 20 20 20 21 22 24 25 25 25 26 27 27 25 24 25 28 32 31 30 25 24 24
27 27 26 26 21 22 22 23 22 20 18 17 15 15 16 18 18 18 18 19 21 19 22 24 24 25 26 28 27 25 26 25 28 31 23 24 24 24
28 27 25 24 24 22 21 22 22 21 18 16 13 13 15 17 16 17 18 19 18 18 17 20 23 25 29 28 25 25 26 28 29 28 24 22 24 24
27 21 21 19 19 19 18 19 20 19 18 16 12 14 14 13 14 16 17 16 16 17 17 18 22 22 22 26 28 25 26 29 29 28 27 29 29 31
27 24 22 19 17 18 19 20 20 19 17 17 16 14 12 13 11 13 14 16 15 16 17 18 19 20 17 9 23 27 25 27 26 23 25 28 28 28
27 25 24 22 20 20 20 20 21 18 15 15 14 7 1 7 8 11 12 6 14 15 15 15 15 16 18 19 20 20 27 23 24 24 26 26 28 29
25 26 25 25 23 21 22 21 19 17 13 9 10 5 -1 7 6 8 8 8 9 15 13 13 13 19 22 24 18 18 19 26 25 23 24 25 25 24
26 25 25 25 25 23 22 22 20 16 13 11 6 2 -2 2 3 1 1 5 11 13 14 13 15 20 24 25 23 17 18 18 23 25 28 27 23 21
28 27 26 25 25 25 24 24 22 20 18 17 13 10 -2 2 3 2 2 9 10 10 12 12 14 16 19 23 23 20 17 19 20 22 20 26 29 29

GFSNE_sfc_dewp_063.txt.gz
Dewpoint
33 33 34 35 35 35 36 35 34 28 24 24 23 24 24 24 24 24 24 27 29 29 28 28 28 29 29 29 29 30 31 31 32 32 33 33 33 35
33 32 32 33 32 31 31 31 32 31 28 26 23 22 21 20 21 21 22 26 26 26 26 27 27 28 28 29 29 30 30 31 31 32 32 32 33 34
31 31 31 33 31 31 33 33 33 29 26 20 22 21 20 20 20 20 23 22 23 25 26 26 27 29 30 30 30 30 29 29 30 31 32 32 33 34
31 30 31 31 30 28 26 23 21 20 19 16 18 19 19 19 19 20 20 20 22 25 27 28 27 27 27 28 29 30 31 32 31 30 30 32 33 34
31 30 30 30 29 26 22 21 20 18 19 19 19 19 19 19 19 20 21 22 23 26 24 24 24 25 26 26 27 29 31 30 32 33 34 33 33 32
31 31 31 30 29 27 21 19 18 18 19 19 18 17 17 19 20 20 20 22 20 20 22 23 24 25 26 27 27 28 28 29 31 32 33 34 34 35
28 30 30 28 28 26 20 19 19 19 18 17 16 15 16 18 19 21 21 19 19 20 20 20 21 22 23 26 27 28 29 30 31 31 33 33 33 34
29 30 31 30 28 30 28 24 22 18 17 17 15 15 17 19 19 20 19 18 17 21 21 22 23 22 23 24 27 29 30 30 31 32 32 33 33 33
29 28 26 22 25 25 28 27 25 22 22 19 16 17 17 19 18 19 19 20 21 22 23 21 23 22 23 23 27 29 29 30 32 32 33 33 33 33
29 26 24 22 24 23 21 20 20 19 19 16 18 20 20 20 20 20 23 23 23 22 23 20 21 22 23 24 28 28 29 32 33 33 33 34 33 34
26 26 25 24 25 27 23 21 20 20 18 19 21 22 22 23 21 19 18 19 17 18 21 21 20 21 23 24 25 28 30 32 33 33 33 32 33 34
25 26 29 27 26 26 22 19 18 19 17 17 19 20 20 21 22 21 19 18 18 16 21 20 19 23 21 23 24 25 26 28 31 32 32 32 32 32
26 27 26 28 27 26 26 21 19 20 19 19 21 20 20 20 20 20 20 19 18 17 19 22 21 22 24 24 23 25 24 27 29 31 34 33 33 33
27 27 27 28 28 27 26 26 26 24 22 20 19 19 18 18 18 19 20 21 22 21 22 23 22 23 23 22 22 24 25 28 30 32 30 28 32 33
29 29 29 29 31 28 28 28 26 22 20 14 17 18 17 18 19 20 20 20 21 22 24 24 23 23 23 23 24 25 25 27 28 28 32 29 24 24
31 31 29 28 28 27 24 26 24 20 19 18 16 15 17 17 17 19 17 17 18 18 21 22 22 23 23 26 27 25 25 26 27 28 26 28 28 23
26 28 27 26 25 24 24 24 23 20 19 16 14 14 14 16 15 16 17 17 15 16 17 19 20 23 24 27 22 24 25 28 30 30 26 25 24 29
27 26 25 24 23 23 22 22 21 19 20 18 13 14 14 14 13 15 16 13 13 15 15 17 18 18 20 22 28 24 25 26 29 26 26 27 26 31
28 25 23 24 22 23 22 21 20 19 20 18 16 13 15 13 10 12 12 13 12 14 15 18 17 16 16 9 21 27 24 24 24 22 25 23 26 27
29 26 24 22 23 23 22 21 20 20 17 16 15 15 11 9 8 10 11 3 8 13 15 14 14 15 16 15 18 19 27 23 19 20 21 25 26 29
27 27 27 26 24 23 23 22 20 19 15 10 15 14 7 8 6 8 6 6 5 14 13 12 13 17 21 22 16 17 19 25 26 24 23 21 22 21
29 27 27 27 27 25 24 22 20 18 15 14 13 13 9 4 5 3 -2 2 9 9 12 13 14 17 22 24 22 20 19 18 22 26 27 27 21 17
26 28 28 27 26 26 25 24 22 20 19 18 17 15 8 2 5 2 0 5 9 8 9 10 13 15 18 21 22 19 18 18 20 21 22 27 28 29

GFSNE_sfc_dewp_066.txt.gz
Dewpoint
33 34 34 34 35 36 36 36 35 30 27 26 25 26 24 24 24 26 22 24 26 27 28 28 29 29 30 30 30 31 31 31 32 32 33 33 34 34
33 32 32 33 33 32 32 33 33 31 28 28 25 25 22 19 22 23 21 25 25 26 26 26 27 28 28 29 30 30 31 32 32 33 33 34 34 34
32 32 31 32 32 31 31 32 31 32 28 26 23 21 20 20 21 21 22 21 23 25 27 27 27 28 29 29 29 29 30 31 31 31 32 32 33 34
31 31 30 31 31 31 29 29 28 28 22 17 18 19 20 20 20 19 19 20 22 25 26 27 26 25 26 26 26 27 28 28 29 30 31 31 30 31
32 31 30 30 29 29 27 24 22 19 20 19 18 20 20 19 18 20 21 22 23 23 22 23 24 26 26 26 26 27 27 28 31 32 31 31 30 31
31 31 30 30 30 29 28 24 21 19 19 19 19 18 17 17 20 19 19 20 18 18 21 23 24 25 26 27 27 28 29 29 30 31 32 32 33 33
30 29 29 29 30 28 23 22 20 18 19 18 17 16 15 15 16 19 19 19 19 20 20 20 21 23 24 26 26 27 27 29 30 31 31 32 32 34
29 29 30 32 32 32 32 29 21 19 19 17 17 16 15 16 20 20 19 18 16 22 22 21 22 22 22 23 26 27 28 29 30 30 31 33 33 33
28 29 29 27 27 24 26 28 27 25 23 21 19 18 17 19 19 19 19 19 19 20 22 21 22 21 22 22 26 27 28 29 30 30 33 33 33 33
29 28 28 26 24 24 23 24 22 21 21 20 20 18 18 20 20 21 21 21 21 20 21 19 21 22 24 23 26 28 29 29 30 32 34 34 34 34
29 29 27 25 26 28 26 23 21 20 21 24 23 22 24 23 22 21 18 18 16 17 20 20 22 21 22 24 26 27 28 29 30 31 31 33 34 33
30 28 29 27 28 29 26 23 20 20 20 17 16 19 22 21 22 22 20 17 16 15 21 19 17 21 20 25 25 28 29 28 29 30 31 31 33 32
28 28 27 28 30 30 28 24 22 21 21 19 18 20 21 21 21 21 20 19 17 16 17 19 20 19 20 21 24 25 28 28 29 30 32 34 32 32
28 28 28 29 30 30 29 28 26 24 23 22 21 21 20 20 20 20 19 21 21 20 20 23 22 20 19 19 19 24 27 29 30 29 31 33 31 32
31 30 30 30 32 31 31 30 28 26 25 23 22 21 20 20 19 19 20 20 20 21 20 24 23 22 22 21 20 24 26 27 29 29 30 32 31 30
30 30 30 29 28 28 29 30 29 27 25 23 21 20 19 18 17 18 18 18 17 18 19 21 21 22 21 21 23 25 26 25 29 31 31 28 30 30
25 24 28 27 26 25 25 26 26 25 23 21 19 18 17 16 16 17 17 17 16 15 15 17 19 21 21 22 22 24 25 26 29 29 29 28 30 30
27 25 26 26 25 24 24 24 24 24 23 21 19 19 18 16 16 16 17 16 14 14 15 16 17 18 17 21 26 25 25 25 27 28 28 28 28 29
29 28 26 26 26 24 24 23 23 23 23 21 21 19 18 16 15 15 15 15 13 14 15 16 16 15 14 13 18 28 24 24 24 25 27 26 27 28
29 28 28 25 24 24 24 24 23 23 21 20 19 18 17 16 14 14 14 11 12 13 14 14 14 13 15 15 17 20 23 25 23 23 24 26 28 28
26 27 28 28 26 24 25 25 24 23 21 17 18 17 15 15 14 13 13 8 8 13 13 12 12 16 18 21 17 19 25 25 26 25 25 23 24 25
16 17 19 25 27 28 25 25 24 23 21 17 17 17 16 14 15 12 9 10 12 13 12 13 12 15 20 22 22 21 23 23 23 26 27 27 24 21
11 13 15 16 18 24 27 25 24 23 22 19 19 17 15 14 14 12 11 10 11 12 10 10 10 14 17 20 20 21 22 22 23 22 24 26 28 29

GFSNE_sfc_dewp_069.txt.gz
Dewpoint
40 40 36 34 34 33 33 34 33 28 22 25 28 30 29 30 27 26 25 24 25 26 26 27 28 29 29 30 31 31 32 32 32 32 33 33 34 35
36 36 35 34 33 33 32 32 32 30 26 25 27 29 29 22 22 25 23 24 23 25 26 27 28 29 29 29 29 30 31 32 33 33 34 34 34 35
36 35 35 34 32 32 32 32 31 32 28 27 28 27 25 23 22 23 21 18 19 23 25 27 28 28 28 29 28 29 29 30 31 31 32 33 34 35
35 35 34 30 33 33 32 32 31 31 32 28 26 22 22 23 23 22 16 14 19 20 25 25 25 25 26 26 26 27 27 28 28 29 30 31 31 32
35 35 34 33 32 31 31 30 30 28 28 27 24 21 21 21 20 19 16 19 17 21 21 22 23 25 26 26 27 28 28 28 28 28 29 30 31 32
35 35 34 33 32 31 31 31 29 27 29 26 21 20 20 20 19 16 14 16 15 14 18 21 23 24 25 26 26 27 28 28 29 30 32 32 32 31
35 34 34 34 34 32 29 29 29 27 26 22 20 19 19 18 17 14 16 15 17 17 17 17 17 18 20 22 23 25 26 28 29 30 30 32 32 33
33 33 32 33 33 34 34 34 32 27 24 22 20 20 19 18 19 17 17 16 16 19 19 17 18 17 18 19 22 25 27 28 28 29 30 32 32 33
32 32 30 29 32 30 30 29 30 28 26 25 25 23 24 22 16 16 16 16 15 16 17 18 19 19 20 18 24 25 27 28 30 30 30 32 33 34
33 32 31 30 30 30 26 25 24 25 25 22 23 22 22 19 17 18 21 21 20 17 17 20 20 20 21 22 24 26 28 28 29 30 31 33 34 33
31 32 31 30 30 30 27 27 26 24 24 25 25 25 25 22 24 23 22 21 20 18 19 20 20 18 20 23 25 25 26 28 29 30 30 31 32 32
31 30 31 31 30 29 30 31 29 26 23 21 21 21 21 21 24 23 22 21 18 17 18 18 15 18 19 22 25 26 28 28 29 30 30 30 31 32
29 28 29 30 30 30 30 31 31 28 26 23 22 22 20 20 22 23 23 23 20 18 16 16 18 18 18 19 21 23 27 29 31 31 30 31 32 32
32 30 30 30 30 30 31 30 30 28 30 27 25 24 24 23 23 23 22 22 21 19 17 22 21 19 19 18 18 21 25 29 33 31 32 31 31 33
33 33 32 30 31 30 31 32 31 32 29 28 25 24 23 23 23 23 22 21 21 21 18 20 21 19 19 19 19 22 24 27 30 32 33 32 32 33
30 32 32 31 32 31 30 30 32 32 30 28 28 25 26 24 24 23 21 20 21 21 19 20 20 21 20 19 18 20 22 26 29 30 32 34 32 33
32 32 32 30 28 29 28 28 29 28 29 28 28 27 25 24 23 24 21 20 19 17 16 17 17 19 20 20 20 20 22 27 27 29 29 29 30 31
31 30 30 30 29 28 28 26 27 27 27 26 27 26 25 23 23 23 21 21 19 17 16 16 16 18 19 20 23 22 27 28 27 28 30 29 29 31
30 31 30 30 30 30 28 28 27 28 29 27 26 26 26 23 24 23 22 21 19 17 16 17 16 16 17 18 20 24 25 23 26 26 27 29 29 31
19 22 25 29 30 29 29 28 28 28 28 27 26 27 26 24 24 22 21 21 19 16 14 14 14 14 17 19 20 23 22 26 25 25 25 27 29 29
15 15 18 20 21 24 30 30 30 29 28 28 27 26 26 24 24 23 21 18 17 15 14 14 13 14 17 22 21 23 28 26 27 27 25 26 27 26
12 12 14 16 18 19 21 23 30 29 28 27 27 27 27 25 24 23 22 21 17 16 15 15 12 15 20 22 22 25 26 28 25 25 27 27 27 24
11 11 12 13 15 17 16 18 18 25 28 27 26 26 26 24 24 24 23 19 17 16 15 14 11 15 18 19 21 23 23 25 26 23 27 27 27 28

GFSNE_sfc_dewp_072.txt.gz
Dewpoint
39 39 36 33 34 33 31 29 28 27 22 23 23 28 29 29 31 31 29 31 27 27 26 27 28 29 30 31 31 32 32 33 33 33 33 34 34 34
36 37 36 34 34 33 31 30 28 27 25 24 23 26 28 26 29 27 26 28 28 27 24 26 28 29 30 30 30 30 31 32 32 33 33 34 35 35
36 36 35 35 34 33 32 30 29 28 25 25 24 26 29 29 26 27 26 24 22 27 24 25 27 27 27 27 28 29 29 29 30 30 31 32 33 34
35 35 35 31 34 34 31 31 29 28 26 26 28 26 29 28 26 26 21 17 18 22 25 24 26 25 26 26 27 27 28 28 28 29 29 30 31 32
35 34 34 34 33 32 31 29 28 24 26 26 26 26 26 26 23 24 22 21 15 22 25 25 24 22 25 26 26 27 27 28 28 28 29 29 30 30
34 34 34 33 33 32 29 29 27 26 27 27 26 28 25 24 23 19 18 17 15 12 20 24 23 23 25 26 25 26 26 27 28 28 29 31 32 31
32 32 34 34 36 34 28 28 28 26 27 27 29 26 21 19 19 18 17 16 17 19 18 18 19 19 20 23 23 25 25 26 27 28 29 30 32 32
30 30 30 33 33 34 34 33 32 28 29 30 27 25 22 20 22 20 19 17 17 20 19 19 18 18 19 19 26 24 25 26 27 28 29 30 32 32
28 28 26 23 30 30 31 33 33 33 32 31 29 26 26 26 24 20 17 16 16 18 19 19 21 20 21 16 27 25 25 27 29 30 30 32 32 32
29 29 30 30 30 30 29 28 27 26 28 26 26 24 23 24 22 20 20 21 21 19 20 22 21 21 22 21 25 25 26 27 28 29 30 32 32 33
29 30 29 30 30 33 31 30 28 26 27 29 29 29 26 25 25 24 23 23 23 20 20 20 21 19 19 22 25 26 26 29 29 30 30 30 31 32
32 32 31 30 30 31 33 33 32 27 26 27 25 25 27 26 26 24 23 23 21 20 19 19 16 16 20 21 23 23 26 27 30 31 32 32 31 31
28 29 32 31 31 32 32 32 32 30 28 29 26 25 23 23 22 24 23 24 23 21 19 19 19 17 18 19 21 22 24 30 29 32 31 32 31 31
27 28 29 31 32 32 33 31 31 31 34 33 30 27 26 25 23 25 25 25 24 22 19 24 23 20 19 19 18 20 23 29 33 32 32 33 32 33
31 31 29 30 31 32 32 31 31 33 33 33 31 29 27 27 26 26 25 24 23 23 20 23 22 20 20 19 19 21 23 25 29 32 32 32 32 32
31 32 32 30 30 32 33 33 34 34 32 32 31 28 28 31 28 26 25 24 25 24 21 22 21 21 20 19 18 19 19 23 28 30 30 32 33 32
31 33 32 31 30 30 32 33 33 31 30 31 29 28 29 29 28 28 25 23 22 20 19 19 19 20 20 19 20 19 20 25 28 28 28 28 29 34
28 30 32 34 32 30 32 32 31 31 28 28 30 28 27 28 27 28 25 23 22 20 18 17 18 20 19 21 24 22 26 28 29 26 26 28 28 31
23 23 25 26 28 28 32 32 32 30 33 31 30 29 28 27 29 26 26 23 22 20 19 19 19 17 16 20 22 25 23 25 25 26 26 28 28 29
18 19 21 22 21 21 23 25 30 31 32 31 32 31 31 29 28 24 24 24 22 20 16 15 16 15 17 20 22 25 25 26 26 26 26 26 29 28
15 15 17 17 18 19 22 23 26 28 32 32 31 30 31 29 27 25 24 23 22 18 16 16 16 17 15 22 23 25 31 26 27 27 25 25 25 26
15 13 14 15 17 18 20 21 22 23 25 30 31 31 31 30 27 26 25 25 21 19 17 17 16 12 17 19 21 25 29 29 27 25 27 26 26 23
14 13 13 14 15 16 16 17 18 20 21 23 25 30 31 30 28 27 26 24 21 19 17 16 14 12 15 15 20 22 26 26 26 24 30 26 26 26

GFSNE_sfc_dewp_075.txt.gz
Dewpoint
41 40 38 36 35 33 32 31 30 28 25 26 25 29 29 30 32 31 32 36 32 31 31 28 27 29 30 31 31 32 33 33 33 33 33 33 34 34
37 38 37 36 34 33 32 31 30 29 28 26 26 30 30 23 30 30 30 35 33 33 33 30 26 27 29 30 30 30 31 32 32 32 33 34 34 35
38 37 37 36 34 33 32 31 30 30 28 29 27 30 31 32 29 31 30 28 29 33 34 28 26 26 27 28 28 28 29 29 30 30 31 32 33 34
36 37 35 30 34 34 34 33 32 31 29 29 29 28 30 31 31 33 26 23 26 26 31 27 26 27 26 26 26 27 28 28 29 29 29 30 31 32
35 34 33 33 34 34 34 32 32 26 30 28 28 29 28 28 28 29 28 28 22 27 30 29 29 28 26 25 26 27 27 28 28 28 28 29 29 30
32 32 32 32 32 34 32 34 30 30 29 27 26 25 26 28 29 29 28 27 22 16 22 25 28 28 29 29 29 28 28 28 27 27 28 30 30 30
30 28 31 32 36 35 31 33 33 30 28 27 25 26 28 29 28 28 27 26 25 21 19 22 21 20 22 27 29 31 28 26 26 27 27 29 30 30
26 27 26 31 30 34 34 33 32 31 30 30 28 28 28 30 29 27 26 24 22 24 21 23 21 20 21 22 28 26 25 25 26 27 28 29 31 32
26 27 25 22 30 28 31 33 32 33 31 32 30 29 30 29 27 24 23 23 21 19 22 22 24 24 23 17 28 29 28 28 26 29 29 31 32 32
30 30 31 32 32 32 31 32 31 31 32 31 31 29 28 28 27 26 26 23 22 21 22 25 26 24 25 25 26 29 29 29 27 29 30 31 32 32
31 30 30 31 31 33 33 33 32 33 31 31 31 32 30 28 25 27 27 26 26 23 24 23 24 21 22 23 26 27 27 28 30 31 31 32 32 32
27 25 28 27 29 32 33 33 34 31 30 32 29 30 29 27 28 26 26 26 23 22 22 23 22 19 20 23 23 26 27 27 28 30 31 32 33 31
26 27 28 28 29 31 32 32 33 32 31 34 34 30 33 29 28 28 27 27 25 23 22 23 21 19 20 20 22 25 27 29 29 31 30 32 33 33
27 29 30 30 31 30 30 30 31 32 34 32 33 33 31 29 28 28 29 28 27 25 24 27 27 22 22 21 19 22 26 28 30 30 32 32 32 32
28 29 30 31 32 31 31 31 31 33 32 31 32 31 31 32 30 31 30 29 28 28 24 26 25 22 23 22 21 23 24 27 28 30 33 31 31 32
26 27 27 28 30 31 32 33 33 33 33 32 31 30 31 32 31 31 30 31 28 28 26 27 26 25 23 22 21 23 23 23 27 28 30 32 31 33
25 28 29 29 29 29 31 31 32 34 33 31 30 29 29 28 29 31 31 28 28 24 22 24 25 26 25 23 23 21 23 26 28 30 30 27 29 32
22 25 25 26 25 25 28 28 32 33 33 32 31 29 29 28 27 29 29 28 26 24 21 20 19 22 21 22 25 24 28 28 29 29 27 28 27 31
20 20 21 22 23 23 23 24 25 27 31 33 31 32 31 29 29 29 29 28 26 23 21 22 21 19 17 20 21 27 25 23 25 25 28 28 28 28
16 16 18 18 18 17 19 21 22 24 26 26 32 33 32 32 29 29 28 27 26 22 19 17 18 17 17 19 21 25 27 26 25 26 26 27 28 28
14 14 16 16 16 16 19 21 22 23 23 25 26 30 32 30 30 29 28 25 25 21 18 17 17 20 17 19 20 24 29 30 27 25 24 25 24 25
15 13 13 14 16 16 18 19 19 20 21 22 23 25 28 30 30 30 29 27 23 21 20 19 18 16 16 15 18 23 25 30 27 27 26 26 24 21
15 14 14 15 14 15 14 16 15 17 17 19 20 20 21 23 29 30 29 27 24 24 20 18 16 15 13 14 17 19 23 25 25 26 28 27 27 26

GFSNE_sfc_dewp_078.txt.gz
Dewpoint
45 42 41 40 40 38 36 34 32 30 29 30 29 30 32 32 36 35 33 38 39 36 34 33 33 30 28 28 30 32 33 33 33 33 33 34 34 35
42 41 40 40 39 38 35 35 35 33 29 30 29 30 31 28 32 34 33 37 38 36 36 36 35 30 28 28 29 29 31 31 32 32 33 33 33 34
41 40 39 40 38 37 37 36 35 33 30 30 30 30 30 31 30 32 35 32 33 36 37 36 36 32 29 28 28 28 29 30 30 31 31 31 32 32
40 39 39 36 36 37 37 35 34 33 32 29 29 30 30 30 31 31 32 31 29 31 35 35 34 32 32 31 29 29 28 28 29 29 30 30 30 31
38 37 36 35 35 35 35 35 34 32 32 30 28 29 29 29 27 27 31 33 30 33 34 34 33 33 33 32 31 31 31 30 30 29 29 29 29 29
36 35 34 34 34 34 33 33 32 32 31 29 28 27 27 27 27 27 28 30 30 26 28 27 31 32 34 33 32 32 32 31 31 31 31 30 30 29
32 32 32 35 36 34 29 30 31 30 30 29 28 27 26 26 26 28 30 29 29 28 26 22 22 24 25 29 30 32 32 33 33 31 29 30 30 29
30 29 30 32 30 33 34 34 32 29 29 30 30 30 28 27 28 29 33 31 25 27 25 22 23 22 22 24 28 28 29 27 27 27 28 29 31 32
30 30 28 26 32 31 32 32 32 33 31 31 30 30 30 29 28 27 27 25 24 24 21 21 23 22 24 22 29 30 30 30 30 30 29 31 31 32
32 32 32 31 31 31 29 29 30 31 32 32 31 31 32 31 28 26 27 26 25 24 21 20 22 23 26 26 29 29 30 30 31 31 31 31 31 32
30 29 28 27 29 30 26 27 27 28 31 34 34 35 35 33 29 27 24 24 22 23 24 23 23 23 23 22 24 28 29 29 30 31 31 32 32 32
27 27 28 28 29 30 27 27 27 27 28 32 31 33 35 33 30 26 26 24 23 21 23 22 22 24 21 22 23 24 25 28 29 30 30 31 32 30
26 26 27 29 31 31 31 29 28 29 28 28 29 30 31 34 29 27 27 26 24 23 23 23 22 22 21 21 22 22 24 24 26 27 30 31 31 31
24 25 26 28 29 29 29 30 31 30 30 29 29 29 29 31 34 33 29 27 27 25 24 26 24 24 23 20 19 21 23 24 25 26 26 29 32 33
24 25 27 27 27 28 30 31 30 30 30 29 28 28 28 30 32 32 33 32 29 27 26 27 27 25 23 21 20 21 21 22 25 25 25 28 28 28
22 22 23 24 26 27 26 27 28 31 31 30 29 29 29 30 32 32 30 30 29 27 28 28 27 25 23 23 22 20 21 20 22 24 25 25 29 28
20 21 22 24 23 22 22 24 24 26 27 30 29 28 28 28 29 28 27 29 28 25 26 27 27 26 26 24 22 21 22 23 24 26 28 29 26 27
20 19 19 16 17 19 20 21 21 21 23 23 26 31 28 27 26 27 27 29 26 26 27 25 23 25 25 24 26 22 24 24 26 25 25 21 24 26
18 18 14 14 15 18 18 18 19 20 21 22 21 25 28 28 26 27 28 29 27 26 26 24 24 22 19 13 21 27 21 24 23 20 22 23 19 23
17 16 13 15 16 16 16 16 17 17 18 19 19 21 23 24 29 28 28 26 27 27 25 22 22 22 20 17 14 17 27 23 22 19 24 23 24 26
16 15 14 15 15 15 15 16 15 16 15 16 17 20 20 20 21 28 28 28 26 26 26 22 22 21 22 19 9 11 17 28 27 24 23 18 20 22
14 14 14 14 14 15 14 14 14 13 13 14 14 17 17 17 17 20 24 28 26 24 24 23 23 21 21 19 15 11 18 22 29 30 28 24 17 13
9 13 15 11 12 12 12 11 11 11 11 12 13 12 13 13 15 17 19 27 26 26 22 21 22 22 21 18 17 16 16 15 25 27 25 27 27 27

GFSNE_sfc_dewp_081.txt.gz
Dewpoint
43 44 44 42 41 39 37 34 33 29 29 30 30 31 31 31 34 39 35 39 40 40 39 38 36 35 34 33 30 29 30 30 32 33 33 33 34 35
46 46 42 41 40 40 37 36 34 32 30 31 31 31 30 29 33 36 32 37 40 40 39 38 37 36 35 32 30 29 29 28 30 31 32 32 33 33
45 44 41 39 39 38 37 36 34 34 32 32 31 31 29 30 30 32 34 34 36 40 38 38 38 38 37 35 31 30 29 28 30 30 30 31 32 32
42 41 39 38 38 38 37 35 34 34 33 31 31 30 30 31 31 30 31 31 31 34 38 38 37 37 36 34 33 33 31 30 30 30 30 30 31 30
40 38 38 36 34 34 34 34 35 34 33 31 30 30 29 29 27 27 28 30 32 35 36 36 37 37 36 34 34 34 33 33 33 31 30 30 30 30
38 35 33 32 32 32 32 32 32 32 31 30 29 28 27 28 27 26 27 28 29 29 31 30 32 35 36 35 35 35 34 34 34 33 32 32 32 30
31 30 29 32 36 34 30 29 29 29 29 29 29 27 27 26 25 27 27 28 29 31 31 30 24 23 24 26 29 34 34 34 33 34 34 33 33 31
27 28 29 31 30 32 34 33 32 29 28 27 29 29 29 28 28 28 27 29 25 30 28 23 23 21 22 23 27 30 32 32 30 31 31 31 31 31
27 28 29 30 33 31 31 30 30 32 30 29 29 30 30 29 30 31 29 28 27 26 21 20 22 21 23 21 29 31 31 31 32 32 31 31 31 32
32 30 29 28 28 29 27 25 26 27 29 29 29 31 31 32 33 32 30 28 26 24 22 19 21 21 23 25 29 30 31 30 30 30 31 32 31 32
29 29 28 27 29 31 28 27 27 27 29 31 32 32 34 34 35 34 30 27 20 23 24 23 23 22 23 23 25 27 29 30 30 31 30 30 30 31
27 27 28 28 30 31 28 27 25 25 26 27 28 29 30 30 33 33 31 28 24 20 24 23 21 22 19 22 22 23 22 24 26 26 28 30 30 28
25 25 26 27 29 28 28 26 27 28 29 30 30 29 29 28 28 31 31 29 27 24 24 23 21 21 21 21 23 22 21 22 23 25 27 28 28 29
23 24 25 24 24 26 28 30 31 29 29 29 29 28 27 28 28 31 31 29 29 26 25 26 20 21 21 20 21 22 21 22 21 23 25 26 28 31
23 22 22 23 25 26 27 26 25 26 26 25 28 29 28 28 28 30 32 32 30 28 26 26 25 25 25 23 22 21 18 21 22 22 21 23 25 26
21 21 21 23 24 24 23 22 24 23 22 23 22 24 28 29 29 31 31 32 30 29 29 27 27 27 26 24 23 22 22 17 21 21 24 24 26 27
20 20 21 21 22 20 20 20 20 20 19 19 21 21 22 25 29 29 30 29 29 26 26 27 28 28 28 25 23 23 23 22 23 22 24 26 26 26
19 18 15 12 14 17 17 17 16 16 17 17 18 19 20 22 23 29 30 28 27 26 26 26 26 26 24 25 27 24 20 22 24 25 24 19 21 24
18 17 10 9 10 16 16 15 14 15 16 16 15 16 18 19 20 20 28 28 27 26 25 26 26 25 20 15 22 28 23 23 22 20 21 18 21 22
18 16 12 12 13 15 14 13 13 13 13 13 12 13 14 16 15 17 18 26 27 27 26 26 24 23 20 18 16 17 27 20 18 17 18 21 22 26
16 15 11 10 10 12 5 6 3 4 6 3 9 12 12 12 12 13 15 17 20 27 25 24 23 24 23 19 12 12 13 23 25 21 21 18 20 20
13 12 12 11 10 7 1 1 6 2 8 6 7 11 9 9 10 11 12 13 16 23 25 25 23 20 21 18 16 10 13 15 26 29 28 24 16 12
7 7 6 4 5 2 5 -2 -0 -3 2 6 9 7 7 6 8 10 10 12 16 17 24 23 22 23 21 19 19 16 14 13 19 24 23 28 29 27

GFSNE_sfc_dewp_084.txt.gz
Dewpoint
46 46 45 45 44 41 38 35 33 29 29 30 30 32 33 33 34 34 39 41 43 41 40 41 41 39 38 37 36 35 33 32 30 30 32 33 33 34
46 45 46 45 43 43 39 37 35 33 30 32 32 32 32 30 33 34 36 40 41 41 40 40 40 40 39 38 37 35 33 31 29 29 30 31 32 32
46 46 45 44 43 40 39 37 35 34 32 32 33 32 30 30 31 32 34 34 35 39 40 40 40 40 38 38 38 38 33 31 29 29 30 31 31 31
46 45 44 42 40 38 37 36 35 35 33 32 32 31 30 31 31 30 30 32 32 36 40 40 39 39 38 37 37 37 34 34 32 30 31 30 31 32
44 43 41 39 37 35 34 34 34 34 34 31 31 31 30 29 28 28 28 28 29 35 37 38 39 39 38 36 37 36 34 34 34 34 33 32 31 31
43 40 38 35 32 31 31 31 31 31 30 29 28 28 28 28 27 27 26 27 27 28 32 32 33 34 36 37 37 36 35 35 35 34 34 34 33 32
35 31 30 32 35 32 29 28 28 27 27 26 27 26 26 26 26 27 27 27 28 29 31 31 31 30 31 34 34 35 35 35 34 33 33 33 34 34
28 28 28 31 34 34 33 32 29 26 25 25 26 26 26 27 27 28 30 30 29 29 31 29 25 23 23 23 26 30 31 32 33 32 32 32 32 33
27 29 30 28 30 28 29 29 28 30 29 27 26 26 26 27 27 29 30 29 28 29 27 23 22 22 22 21 29 31 32 32 32 32 32 32 32 32
30 29 28 26 27 29 28 27 27 27 28 27 27 27 28 29 29 30 30 31 32 28 26 25 22 21 22 23 27 29 31 33 31 30 31 31 32 32
28 28 27 26 29 30 28 27 26 25 27 30 31 31 31 32 32 31 29 25 25 26 25 25 23 22 22 23 24 28 30 29 26 28 27 28 29 31
25 26 27 27 28 29 26 26 25 26 26 27 28 29 31 30 30 30 30 26 25 25 28 27 23 22 19 23 22 22 21 24 25 25 25 26 26 27
24 24 25 25 24 24 26 27 28 28 28 27 25 27 28 29 29 29 28 28 28 28 26 26 23 22 20 20 22 23 23 22 22 23 25 26 26 26
22 23 24 22 23 25 27 25 23 26 25 24 23 23 24 25 30 29 28 30 32 30 29 30 27 23 22 19 20 23 23 22 19 22 23 25 26 27
21 21 21 22 23 25 22 20 24 22 21 19 20 19 22 23 25 29 30 30 31 30 30 30 29 27 23 20 20 21 21 22 21 21 21 22 23 23
22 21 22 23 24 23 22 22 23 21 20 18 17 20 19 20 21 23 25 29 29 29 30 30 30 28 25 24 24 25 24 19 20 20 23 22 24 27
21 21 21 21 19 18 19 19 18 17 16 16 17 14 15 16 18 19 21 22 28 26 27 28 28 27 27 27 25 24 23 23 22 22 22 23 25 27
21 19 16 14 15 17 16 16 15 15 14 15 13 13 12 13 15 15 17 19 23 28 26 26 25 26 27 27 29 25 17 22 22 23 23 20 21 23
18 17 13 12 12 16 15 14 12 13 15 13 11 10 12 12 12 12 14 15 16 21 28 27 27 25 21 15 23 28 23 22 21 18 22 20 16 22
18 17 14 13 14 14 13 12 11 8 7 10 6 5 9 10 8 8 10 11 13 15 19 26 26 25 23 16 17 18 27 23 20 15 16 19 22 25
15 13 13 12 10 10 -0 -3 -7 -6 -5 -9 -1 1 3 7 5 6 7 8 11 13 14 23 25 26 24 18 12 12 13 22 24 18 18 17 17 19
10 12 12 10 3 3 -6 -8 -8 -8 -5 -3 -5 -1 -6 1 3 4 6 6 7 11 14 15 27 26 19 18 17 10 12 13 21 27 27 24 17 13
6 9 6 1 2 -1 5 -5 -5 -10 -4 -1 1 1 -10 0 4 5 3 4 7 9 11 13 25 21 19 18 19 16 14 11 16 20 19 28 28 27

GFSNE_sfc_dewp_087.txt.gz
Dewpoint
47 46 46 46 45 43 41 38 36 32 30 31 31 32 33 34 34 34 34 40 43 44 43 43 44 43 43 40 39 39 39 39 37 34 32 32 32 33
47 46 46 46 45 45 42 40 37 35 31 32 32 32 32 32 33 35 33 38 41 42 43 42 42 42 42 41 40 39 40 39 37 34 32 31 31 32
47 46 45 45 44 43 42 40 37 35 32 32 33 32 31 31 32 32 33 33 34 39 40 41 41 41 41 40 39 40 40 38 36 35 31 31 31 31
46 45 44 45 43 43 41 39 37 35 33 31 32 32 31 32 32 31 31 30 32 35 39 39 41 40 40 39 39 39 39 37 37 35 31 30 30 31
45 45 45 44 42 40 38 37 35 34 33 31 30 30 30 30 28 28 28 28 28 33 36 39 40 41 40 39 39 39 38 36 36 35 35 34 31 31
46 45 44 42 41 37 33 32 31 30 29 28 27 27 28 28 28 27 27 27 27 27 30 32 34 36 37 37 38 38 36 36 35 35 35 34 34 34
43 41 40 38 36 32 29 27 28 27 27 26 25 25 25 26 26 27 27 28 28 28 28 29 30 31 31 34 35 36 36 36 35 35 35 34 33 33
37 33 32 35 34 33 33 32 28 25 24 24 24 25 24 25 26 26 26 26 24 28 27 29 30 30 29 26 30 33 32 31 32 32 33 33 32 32
33 31 29 28 30 28 29 28 28 29 28 26 25 25 24 25 26 26 25 26 27 26 29 28 26 26 26 23 28 31 32 32 32 33 33 32 32 32
31 30 28 27 30 30 28 27 27 28 28 27 27 26 26 27 28 28 28 29 29 28 31 27 26 25 24 24 27 28 30 32 32 33 32 32 31 31
28 28 27 27 27 27 26 25 25 25 26 28 29 30 31 32 32 31 28 28 25 25 27 28 26 24 23 23 24 28 29 32 32 31 29 27 29 29
25 25 26 25 26 25 25 26 25 25 28 28 28 28 29 30 31 31 30 26 26 25 25 25 25 26 25 23 24 24 25 28 26 25 26 25 25 26
24 23 24 22 22 23 25 27 26 25 25 25 25 25 25 25 26 29 31 30 27 26 26 28 26 25 26 20 22 23 23 22 23 23 25 25 25 25
21 22 22 21 22 25 26 21 22 24 23 22 21 21 20 21 22 22 24 28 32 30 29 31 28 25 25 24 23 23 23 22 19 21 23 24 26 26
21 20 21 21 23 26 20 20 22 22 20 19 17 16 18 18 19 21 22 23 24 28 31 32 30 28 27 25 23 22 21 21 22 21 20 22 23 23
22 21 22 23 24 23 21 21 20 19 18 16 15 17 15 16 15 17 18 17 20 20 27 31 31 30 27 27 25 23 23 22 21 21 21 23 23 24
23 22 21 20 18 18 17 16 16 14 14 15 15 12 12 12 12 15 14 14 16 16 17 26 30 30 30 28 25 24 24 24 23 23 21 21 23 24
21 19 17 16 16 16 16 15 14 13 13 13 12 10 9 10 10 10 11 12 11 12 15 17 28 26 27 28 29 26 20 21 22 23 23 22 22 23
20 19 14 14 14 16 15 13 12 13 12 11 9 7 8 9 8 7 8 8 8 9 12 17 20 26 21 20 22 30 25 22 21 20 21 20 16 21
19 17 14 14 13 12 11 11 10 6 3 7 2 0 0 6 4 4 4 4 6 7 9 12 17 26 23 19 15 16 28 22 20 17 15 18 21 23
14 13 13 12 11 10 2 -3 -11 -10 -9 -12 -6 -5 -6 1 2 3 3 3 3 5 6 8 13 19 21 23 15 10 13 25 25 21 18 16 21 18
10 11 11 9 1 -1 -10 -10 -13 -12 -7 -7 -5 -12 -13 -8 -1 0 1 1 1 3 6 9 13 17 23 21 15 6 13 11 19 25 24 22 17 12
4 6 5 -1 1 2 3 -6 -8 -13 -7 -1 -3 -3 -10 -8 -1 2 1 0 1 2 5 7 11 15 23 22 17 15 15 12 17 19 19 27 27 26

GFSNE_sfc_dewp_090.txt.gz
Dewpoint
48 47 46 45 45 45 43 40 39 35 32 33 32 34 35 35 36 37 37 38 41 43 44 45 45 46 46 46 45 43 41 40 40 40 39 37 35 34
48 47 47 46 46 45 43 39 39 38 36 35 34 34 34 32 35 38 36 38 40 41 41 43 44 44 44 44 44 43 42 40 40 40 38 38 37 34
48 48 47 47 46 45 43 42 38 38 36 35 34 34 34 34 34 35 35 35 35 39 40 41 42 42 42 42 42 42 42 41 40 38 38 38 38 34
48 48 47 46 45 44 43 41 40 38 35 34 34 33 33 34 34 33 32 30 33 34 37 39 40 41 41 41 40 40 40 40 40 40 39 37 37 33
48 48 47 45 44 44 43 41 39 37 36 34 33 32 32 32 30 30 30 31 28 32 35 36 37 39 40 41 40 40 39 39 39 39 38 37 36 32
49 47 46 45 44 43 41 39 37 35 32 30 29 29 29 30 29 29 28 29 28 28 31 32 34 34 36 37 38 39 39 38 39 37 36 35 35 35
46 45 44 43 41 40 37 35 33 29 28 28 27 27 27 27 27 28 27 27 28 30 29 30 30 31 32 33 34 36 36 37 36 35 35 35 35 35
41 39 38 38 36 35 34 32 31 29 27 26 26 25 25 26 27 27 26 26 25 28 28 28 30 29 30 31 32 33 35 36 37 36 36 36 35 35
36 35 34 33 32 30 30 29 28 29 27 27 26 25 25 26 26 26 26 26 25 26 28 26 28 28 29 28 31 32 33 34 33 32 32 33 33 33
36 34 31 29 30 29 28 27 27 26 26 26 27 26 27 28 28 28 28 29 28 27 30 27 27 26 28 28 30 31 32 33 32 32 33 33 33 32
30 29 28 28 29 29 26 25 24 25 27 28 29 30 30 31 31 31 28 29 26 25 27 27 27 26 27 27 27 29 31 32 33 33 33 33 32 31
28 28 29 28 27 25 25 25 25 25 25 25 24 24 25 27 27 29 30 28 26 25 26 26 25 25 25 26 26 26 28 31 32 32 30 26 26 25
27 24 23 23 24 25 26 27 25 23 21 21 20 21 23 21 23 23 22 24 23 24 27 28 27 26 27 25 24 24 25 26 28 28 27 27 26 25
25 23 24 24 25 27 27 23 21 21 21 19 18 17 16 17 18 19 20 23 24 23 23 27 29 27 27 25 23 25 25 26 26 25 26 25 26 26
24 24 24 24 25 26 22 21 22 20 18 17 15 14 15 15 14 15 16 18 18 19 20 23 25 28 30 26 25 25 26 27 26 25 25 25 24 25
24 24 23 24 26 23 23 22 20 19 17 16 14 15 12 12 11 12 13 14 14 15 16 20 22 24 28 28 26 26 26 26 25 25 25 25 25 25
24 23 23 23 22 21 20 20 19 18 17 16 13 11 10 8 8 10 10 9 10 10 11 13 16 19 22 30 27 27 26 26 25 25 24 23 25 26
22 20 19 18 17 18 17 17 16 15 13 12 11 10 7 7 7 8 7 7 7 7 8 9 12 16 19 28 31 26 27 26 26 25 25 24 24 26
20 19 16 15 15 16 15 14 12 12 10 9 9 7 6 6 6 4 4 4 4 4 6 9 11 14 14 17 25 31 26 24 24 24 25 24 23 24
16 14 13 13 13 12 11 9 9 7 4 5 5 3 0 5 3 2 3 3 2 3 3 4 7 11 12 12 15 25 30 26 24 23 22 23 24 24
11 11 12 11 9 9 5 -0 -2 -1 -3 -7 -2 -2 -2 2 1 1 2 1 1 1 1 2 5 11 15 19 18 22 22 27 25 24 22 21 21 22
5 7 7 6 3 4 1 -2 -1 -3 -3 -3 -2 -1 -2 -2 -1 -1 0 1 0 1 1 3 5 8 12 14 18 20 19 18 23 27 24 23 23 19
-1 3 4 3 4 4 3 -1 -3 -9 -6 -2 0 0 -3 -3 -1 0 1 1 0 0 -0 2 4 7 10 13 18 21 16 16 19 19 21 26 25 25

GFSNE_sfc_dewp_093.txt.gz
Dewpoint
55 52 53 52 50 48 48 46 46 43 37 37 36 38 37 37 37 39 41 40 41 42 43 44 45 46 47 47 47 45 43 42 41 41 40 40 39 39
54 52 51 51 50 50 49 46 47 45 44 39 37 37 37 33 38 39 39 41 40 40 41 42 43 44 45 45 46 45 45 44 42 40 40 40 39 39
51 51 50 50 49 48 48 46 44 44 44 42 40 39 36 37 35 38 39 38 38 39 40 40 41 41 43 43 43 43 44 44 44 43 40 39 38 38
51 50 50 50 48 48 49 45 45 42 40 41 38 35 36 38 39 39 36 32 34 36 37 38 39 40 40 40 41 41 41 42 42 42 42 40 38 37
52 50 50 49 48 48 48 48 46 41 41 39 37 36 37 36 36 35 34 34 31 34 35 36 36 37 38 38 39 40 40 40 39 39 39 40 39 38
54 52 50 50 48 49 47 45 43 40 38 36 35 34 34 34 32 31 30 31 30 26 28 30 32 32 34 36 37 37 39 39 39 38 38 38 38 38
51 50 49 49 47 46 45 42 40 37 35 33 32 32 33 30 30 29 28 27 26 25 25 26 27 28 29 32 33 34 36 37 37 37 38 38 36 36
47 42 42 41 39 37 37 37 37 35 33 32 34 32 33 31 30 28 26 24 20 27 27 26 26 26 26 27 31 33 33 33 35 36 36 36 35 35
38 38 36 35 35 34 33 32 32 32 31 34 34 32 32 29 26 25 23 23 22 23 27 25 27 26 27 25 32 32 33 33 34 36 37 36 36 35
36 34 33 32 33 32 32 31 31 32 32 31 31 27 27 28 29 28 27 28 28 26 27 27 26 25 27 27 31 30 31 33 34 34 35 33 32 33
31 31 31 31 31 32 30 29 28 28 30 30 30 30 29 29 29 29 28 26 25 23 24 25 25 24 25 26 27 30 31 31 32 34 33 33 33 34
28 28 29 28 29 28 27 26 25 26 26 26 26 25 25 25 24 25 26 25 23 22 24 25 23 22 24 22 25 28 28 30 32 33 33 33 33 26
26 25 26 28 28 27 28 28 28 27 24 21 21 21 22 20 22 24 22 22 22 20 21 25 23 22 26 24 23 25 27 28 29 32 32 32 30 27
26 26 26 27 27 28 28 26 25 25 25 21 19 21 21 21 22 18 18 20 19 20 19 22 22 21 23 23 21 22 26 29 32 31 31 29 29 29
26 25 25 26 26 28 27 25 22 23 23 22 20 20 20 19 17 17 16 14 15 17 14 17 20 20 22 23 23 25 28 29 29 30 29 27 27 27
25 25 25 25 26 26 25 24 24 22 20 20 18 18 17 16 13 11 11 12 12 13 12 15 18 20 20 20 20 25 27 29 30 29 30 29 28 28
24 23 23 21 22 23 22 21 21 20 18 18 16 15 13 10 9 10 10 9 10 8 8 9 11 14 17 18 20 21 27 30 30 30 31 27 27 27
21 20 20 20 18 17 18 18 16 15 14 13 13 11 10 9 8 9 9 9 9 7 6 6 8 12 15 17 21 24 29 30 29 30 30 26 25 27
17 16 17 17 16 15 15 14 13 14 11 9 9 9 8 7 7 7 7 7 6 5 6 7 9 10 11 14 15 23 27 29 30 30 28 27 27 25
11 12 13 13 11 9 9 9 8 8 8 7 7 7 7 7 6 5 5 6 5 4 3 3 5 7 10 12 14 18 18 23 29 29 26 27 26 25
6 6 8 7 7 6 8 7 7 7 6 6 6 5 6 5 4 3 4 3 3 3 2 3 4 7 9 14 14 16 21 25 31 29 26 26 23 22
5 3 3 4 5 4 5 6 5 4 3 3 4 4 5 5 3 3 4 4 3 3 3 3 3 5 9 11 12 15 18 28 30 26 26 25 25 20
3 2 3 3 2 2 1 2 1 2 1 1 2 2 3 3 3 4 4 3 3 2 2 3 3 4 6 9 11 14 16 25 26 26 27 26 24 24

GFSNE_sfc_dewp_099.txt.gz
Dewpoint
61 61 59 59 58 58 57 53 51 48 48 50 50 49 48 48 49 49 47 45 44 44 44 45 46 47 47 48 48 47 46 45 45 45 44 43 42 42
59 59 58 57 56 57 55 54 52 51 49 51 50 51 49 48 48 47 47 46 44 43 43 43 43 44 45 45 45 45 46 46 46 45 45 44 42 41
57 57 57 57 58 58 57 56 54 52 50 51 52 52 49 48 48 48 47 45 43 41 41 41 41 42 43 43 43 44 44 45 45 45 45 43 43 41
56 57 57 56 56 56 57 54 54 53 50 48 50 50 51 51 51 47 45 41 41 41 40 40 41 41 41 41 41 41 42 43 43 43 43 43 42 41
57 57 56 55 55 56 55 53 53 52 51 49 48 49 50 45 46 43 44 41 39 42 41 40 40 40 40 39 39 39 39 39 39 39 40 40 40 40
57 56 56 56 55 54 54 52 51 50 49 48 47 42 38 39 39 38 39 41 41 43 43 39 38 37 38 38 38 38 37 37 37 38 37 37 38 39
56 52 41 40 38 38 44 47 48 47 46 43 36 36 36 35 36 38 36 36 39 40 40 40 39 38 36 36 35 35 35 35 35 36 36 37 38 38
42 38 37 36 35 34 34 34 33 36 37 36 34 34 33 34 34 34 33 33 33 38 37 36 36 34 34 33 33 34 34 36 36 36 37 36 36 36
35 34 33 34 34 33 32 32 32 32 31 34 32 32 32 32 34 34 34 34 34 35 35 32 35 34 33 27 33 34 34 34 34 35 34 34 34 34
31 31 31 32 33 32 31 31 31 31 32 33 33 34 34 35 34 34 34 34 34 34 35 30 33 31 30 30 33 34 33 34 34 34 34 34 34 34
30 30 29 29 30 31 31 30 30 30 32 32 32 32 32 32 32 32 31 31 29 30 33 33 32 32 32 32 32 33 34 34 34 34 34 34 34 34
28 28 28 28 28 28 30 30 30 30 30 30 31 30 29 30 28 28 28 26 26 25 29 29 30 31 29 31 32 32 32 34 33 33 34 33 34 32
27 26 26 27 27 28 28 27 27 27 28 27 27 27 28 29 29 29 29 28 24 23 24 27 24 22 23 25 25 26 27 28 29 31 32 33 34 33
28 27 26 26 27 27 27 25 24 26 27 25 24 24 25 24 26 21 22 23 23 24 24 25 22 21 22 21 20 20 23 25 28 28 30 31 33 34
26 25 24 25 26 27 24 23 25 24 23 21 20 21 20 20 18 18 19 18 18 19 17 19 23 21 21 20 19 20 22 24 25 27 29 30 32 34
26 25 25 24 26 26 23 24 26 23 20 22 19 16 16 16 15 15 16 15 17 17 14 19 20 22 21 20 19 20 20 20 23 25 26 28 31 32
23 21 20 18 17 16 17 17 17 17 17 15 13 13 12 10 11 14 13 11 12 12 12 11 12 14 15 14 16 14 16 19 21 23 23 23 26 33
18 17 18 17 15 12 12 11 11 10 10 8 12 11 10 10 10 10 11 13 12 12 11 9 11 13 13 12 14 15 20 20 22 23 23 24 24 30
14 14 14 14 12 9 8 8 8 9 8 8 9 9 9 8 11 8 9 10 9 6 8 9 9 9 10 11 11 14 16 15 16 18 21 23 25 27
8 10 11 10 8 5 6 6 7 8 9 7 8 9 9 9 8 7 7 9 7 4 4 4 7 9 12 9 10 12 12 15 17 19 21 23 25 31
6 6 8 7 7 6 9 9 9 9 8 8 7 8 8 7 6 5 6 6 7 5 5 4 5 10 10 13 12 12 16 14 16 20 23 22 20 28
8 6 6 7 8 7 9 8 7 7 6 5 6 7 8 7 5 6 7 7 6 6 5 5 5 7 9 9 9 11 12 16 16 18 20 22 20 26
8 7 7 7 7 7 5 6 5 5 4 4 5 5 6 6 5 6 7 7 6 7 6 7 7 6 6 6 9 11 12 14 18 18 22 29 29 28

GFSNE_sfc_dewp_102.txt.gz
Dewpoint
56 56 56 57 57 57 55 54 52 49 48 49 50 51 51 52 52 51 49 48 46 45 46 47 48 48 48 49 50 51 51 51 51 51 50 50 48 46
57 56 57 57 57 57 57 56 55 52 50 51 50 52 53 51 51 51 50 49 47 46 45 45 46 46 46 47 47 47 48 49 49 49 47 46 43 43
56 56 56 56 57 57 57 57 55 54 51 52 52 53 53 51 50 49 49 49 50 46 45 45 45 44 44 45 45 46 46 46 46 46 46 44 42 42
55 56 55 55 56 56 56 56 56 54 53 52 53 52 51 51 50 49 49 48 48 47 45 45 44 43 43 43 43 43 43 44 44 45 45 45 43 44
55 54 54 55 55 54 55 55 55 55 53 52 51 51 49 45 46 45 44 45 43 44 42 41 41 42 42 41 41 41 41 41 41 41 41 41 41 41
54 46 41 40 40 42 47 47 49 50 51 49 48 47 40 40 39 39 39 40 41 44 43 41 41 39 39 39 39 39 40 40 40 39 39 38 38 38
41 38 38 37 36 35 37 36 38 41 41 40 37 35 35 35 35 36 36 35 36 39 39 39 40 39 40 40 39 39 39 39 39 39 38 37 36 36
37 36 36 36 34 34 33 33 33 34 34 34 33 33 32 32 33 32 32 32 32 36 35 33 38 36 37 36 37 38 38 38 37 37 37 36 36 37
34 34 33 33 34 33 33 32 32 33 31 33 31 31 31 32 32 32 32 32 32 35 33 31 34 34 36 35 36 37 37 37 37 36 36 36 35 35
32 31 30 30 32 33 32 31 30 31 31 32 31 31 32 32 32 32 31 31 32 33 34 29 30 31 33 34 36 36 36 36 35 35 35 34 34 34
30 30 29 28 29 31 31 30 30 30 31 31 31 31 31 31 30 29 27 25 24 27 31 28 31 30 32 33 34 34 34 35 35 34 34 35 34 34
28 28 28 27 29 30 27 26 24 25 29 27 28 28 29 29 30 29 28 23 23 24 27 23 24 25 23 28 26 27 28 31 33 35 36 37 35 32
28 25 26 28 27 27 25 25 25 26 27 25 25 25 27 26 25 23 23 23 20 19 20 21 20 19 20 19 19 20 21 23 25 28 29 30 32 34
25 25 26 28 26 25 25 25 25 25 22 22 22 22 20 20 20 20 21 21 21 20 20 21 20 20 18 17 16 17 18 20 23 24 27 29 31 31
26 26 26 25 25 26 25 24 22 21 20 17 16 15 14 15 14 15 15 15 15 15 12 15 16 17 21 20 18 18 19 20 21 23 28 29 29 29
25 23 21 21 20 20 19 18 18 16 15 13 11 12 12 12 11 11 11 10 10 10 11 14 15 15 15 18 18 17 17 15 17 19 19 21 23 25
22 19 17 16 14 13 13 12 12 11 10 10 10 10 9 8 9 10 9 8 7 7 8 10 10 10 11 11 11 10 11 13 17 21 20 21 21 23
16 14 13 12 11 10 10 9 10 9 9 9 9 8 8 8 7 8 8 7 7 7 5 5 5 7 7 9 12 13 15 14 12 12 14 17 20 24
12 12 10 9 9 8 8 8 7 8 9 8 7 7 7 7 6 6 6 6 5 4 3 5 6 9 7 3 5 9 8 9 10 11 14 18 19 20
9 9 8 8 7 6 7 7 8 8 7 7 6 6 5 5 5 4 4 3 4 4 4 5 5 5 5 4 5 9 13 11 14 15 14 16 19 22
7 7 8 8 8 8 6 6 4 4 3 2 4 3 3 5 3 3 4 3 3 3 3 3 4 8 8 10 5 5 9 12 12 13 16 16 16 16
8 7 7 8 7 6 3 1 2 2 3 3 2 3 3 3 2 3 3 4 4 3 3 4 5 5 4 4 4 4 6 9 12 16 18 18 17 15
6 7 6 5 5 4 4 3 2 -1 3 3 3 3 1 1 3 3 4 3 3 3 3 3 3 3 3 3 4 5 8 10 10 11 14 19 23 23

GFSNE_sfc_dewp_105.txt.gz
Dewpoint
56 56 56 56 56 56 55 53 52 49 49 49 50 52 51 51 50 50 50 49 48 47 47 48 49 50 50 51 52 53 54 55 54 54 54 54 54 54
56 55 55 55 55 56 55 55 54 53 51 52 51 52 52 53 53 53 53 50 48 46 46 46 47 48 49 49 49 50 51 52 53 54 53 53 52 52
55 55 55 55 56 56 56 56 55 55 53 53 54 54 51 52 53 53 52 52 51 46 45 45 45 45 46 47 47 48 49 50 50 51 51 51 51 50
53 54 54 55 55 55 56 55 55 55 54 53 54 54 52 52 52 52 51 50 49 47 45 45 45 45 45 44 44 45 45 46 47 48 48 46 45 45
55 54 52 50 52 48 50 51 51 52 52 50 49 50 48 43 44 44 43 43 45 45 43 42 42 43 43 43 43 43 43 43 42 43 43 43 44 43
45 42 40 39 39 42 41 40 43 44 44 44 43 39 38 39 39 38 38 40 40 42 43 41 41 40 40 40 40 41 41 41 41 40 40 39 39 41
39 37 37 37 36 36 37 35 37 37 37 37 34 35 33 33 33 34 34 34 36 37 37 39 39 40 40 41 40 40 40 40 40 40 39 39 38 38
36 36 36 35 34 34 34 33 33 33 32 33 31 31 30 31 32 32 32 31 31 37 34 32 35 35 37 38 38 38 38 39 39 39 39 38 38 37
34 33 32 33 34 33 33 32 32 31 31 32 29 29 29 29 29 28 28 27 29 30 32 29 29 30 32 33 36 37 38 38 38 38 38 37 37 36
31 31 30 31 32 32 32 31 30 31 31 30 29 29 28 29 29 28 27 27 26 28 25 24 27 25 26 27 31 34 36 35 35 35 36 37 37 36
30 30 30 30 30 29 27 25 25 27 29 30 30 30 32 30 26 23 21 19 18 19 23 19 22 19 20 21 26 25 23 23 24 25 31 33 34 35
28 29 29 27 27 25 25 24 24 25 24 24 25 25 23 23 23 22 20 18 18 15 20 18 17 17 15 19 18 18 19 21 22 22 24 28 29 32
25 26 27 27 26 27 27 24 22 22 22 22 19 17 17 17 17 18 18 18 16 15 16 15 16 14 15 14 15 17 18 20 19 21 24 24 27 29
25 26 27 26 25 24 21 20 20 19 17 15 14 13 13 14 13 13 14 13 13 12 11 14 11 13 13 12 11 14 16 20 22 21 22 22 21 25
22 22 21 21 19 18 17 16 16 14 12 11 11 11 11 10 9 11 10 10 10 10 7 12 13 12 10 9 8 9 10 12 16 16 18 20 20 20
20 18 17 17 15 14 14 14 13 12 11 10 9 9 9 9 8 8 8 7 8 8 7 10 9 9 7 7 7 8 10 13 17 15 11 14 17 20
16 14 13 12 11 10 10 10 10 10 9 9 8 7 7 6 6 7 6 6 5 4 3 4 4 7 9 9 8 10 7 8 9 10 11 12 14 18
12 10 8 8 8 8 8 8 8 8 8 7 7 7 6 5 5 6 6 5 3 3 3 3 5 6 5 4 6 5 7 8 10 11 12 12 12 16
10 8 6 3 5 8 8 7 7 7 8 6 6 5 5 5 4 3 3 4 3 3 3 5 4 3 1 -1 3 7 7 8 9 9 11 13 13 15
9 7 5 5 7 7 6 5 5 3 3 4 2 0 -2 3 1 1 2 2 2 3 2 1 2 3 4 3 3 5 9 7 8 9 10 13 14 17
7 7 7 6 5 5 -2 -3 -11 -6 -8 -9 -3 -2 -7 0 -0 1 2 2 2 1 1 1 2 6 5 5 2 2 5 10 11 10 13 13 12 14
6 5 5 4 1 1 -5 -8 -6 -10 -4 -2 -10 -14 -12 -2 -1 -0 1 1 -0 1 1 1 2 3 3 3 2 2 4 7 11 13 14 14 12 9
-2 2 1 -2 0 -3 0 -5 -7 -14 -6 -6 -7 -2 -9 -4 -1 -0 -1 -1 0 -0 -0 1 2 3 2 2 3 5 6 6 8 10 12 16 19 21

GFSNE_sfc_dewp_108.txt.gz
Dewpoint
56 56 55 55 55 55 54 52 50 48 47 49 49 51 51 50 49 49 49 48 47 47 47 47 49 50 50 51 52 52 53 54 56 56 56 56 56 56
56 55 55 55 56 56 55 55 54 52 49 49 50 51 52 52 52 51 51 50 49 47 46 46 47 48 49 49 50 50 51 52 53 54 54 56 56 56
53 53 53 54 55 55 55 55 54 53 51 52 53 54 51 52 52 53 54 54 53 47 44 45 45 45 45 46 46 47 48 49 50 51 53 53 54 55
54 54 54 54 54 55 54 53 54 54 54 53 54 54 52 49 45 45 44 43 44 44 44 43 43 43 43 43 44 44 44 45 46 47 48 50 52 53
54 53 52 49 52 47 47 47 46 47 48 47 47 43 43 40 39 41 40 41 39 41 42 42 42 42 41 41 41 41 42 42 42 43 44 44 46 48
43 40 38 38 39 41 39 39 41 42 41 40 39 38 36 37 36 34 33 34 34 37 37 37 37 37 39 40 40 40 40 40 40 40 40 40 40 42
38 36 36 36 36 35 35 35 36 36 36 34 33 32 31 31 30 32 32 31 31 35 30 32 32 33 33 34 35 36 38 38 38 38 39 39 38 39
35 34 34 34 34 34 33 33 32 33 32 31 30 30 28 29 29 27 26 26 26 30 28 28 30 30 30 26 28 31 34 35 35 36 36 36 37 38
33 33 33 33 33 32 32 32 32 32 30 30 28 27 27 28 27 24 24 24 22 26 22 22 26 23 20 18 22 27 26 24 24 25 27 29 31 33
31 31 31 31 32 32 30 29 30 30 30 30 29 28 26 25 23 22 21 20 20 22 21 16 20 17 17 18 21 23 21 21 21 22 23 22 25 31
30 29 28 28 29 30 28 26 24 24 28 27 25 23 22 21 21 18 17 15 14 15 19 15 16 16 15 17 19 18 17 19 20 22 23 23 23 24
28 29 29 29 29 28 25 22 21 22 22 18 17 16 17 16 17 17 15 12 11 11 15 10 10 11 9 13 12 14 16 18 17 19 21 22 22 24
27 27 28 27 24 23 22 20 18 17 16 15 14 13 13 12 12 13 13 13 10 8 9 10 11 10 10 9 9 10 12 11 11 13 15 19 18 19
26 27 26 24 21 20 17 16 15 14 14 13 11 10 10 9 9 10 9 11 10 9 9 12 4 9 8 5 3 4 7 10 13 15 19 16 15 16
24 22 21 19 17 17 15 13 14 12 11 8 8 8 8 8 6 7 7 7 7 6 3 8 8 7 7 6 6 7 9 11 14 9 12 11 12 14
18 16 16 16 15 13 12 12 12 11 9 8 8 8 7 7 6 6 6 6 5 5 3 6 7 8 7 7 6 6 5 6 7 9 10 12 13 15
16 15 13 11 10 9 9 9 9 8 7 8 7 5 4 4 5 5 5 4 3 2 2 4 4 5 6 4 4 3 4 6 8 8 9 9 11 13
12 10 9 9 8 8 7 7 7 7 6 6 5 5 3 3 3 3 3 3 2 2 2 2 2 3 3 2 6 4 5 5 6 7 8 8 8 11
8 7 6 5 7 7 6 6 4 5 6 5 3 2 1 1 0 1 2 2 1 1 1 2 2 2 -1 -4 -0 4 4 6 7 7 8 8 9 10
8 7 6 6 6 4 4 3 2 -0 -1 1 -2 -5 -7 -2 -2 -1 -0 -0 -0 -0 -1 -0 0 0 0 -0 1 3 9 7 9 8 8 9 11 13
7 6 5 4 3 1 -10 -12 -15 -12 -13 -16 -10 -7 -14 -5 -4 -2 -2 -2 -2 -2 -2 -2 -1 4 4 5 1 -0 3 9 10 11 11 10 9 10
5 4 3 1 -4 -6 -14 -18 -12 -14 -10 -7 -15 -18 -15 -9 -4 -4 -4 -4 -3 -2 -2 -1 -0 1 1 0 0 1 2 5 9 12 15 15 12 6
-5 -1 -3 -4 -4 -9 -4 -12 -12 -21 -12 -8 -9 -8 -17 -10 -5 -5 -5 -5 -3 -4 -3 -2 -1 -1 -1 -0 1 3 4 6 10 11 13 17 17 17

GFSNE_sfc_dewp_111.txt.gz
Dewpoint
56 55 55 55 54 54 53 51 50 48 47 49 49 51 50 49 49 50 49 49 47 48 47 47 49 50 50 51 51 52 53 53 54 54 54 55 56 58
56 55 55 56 56 55 55 54 53 51 49 50 50 50 52 52 52 51 52 51 47 45 44 45 45 46 46 46 47 48 49 49 50 51 52 53 54 55
55 55 54 55 55 55 55 55 54 54 51 51 52 52 50 49 47 46 46 45 45 42 43 43 42 42 42 42 42 42 43 44 45 46 47 49 51 51
55 54 54 53 54 54 54 54 53 53 53 52 53 46 41 42 42 40 40 37 38 40 40 38 38 38 40 40 40 40 41 41 41 41 42 43 45 46
54 53 49 48 49 47 47 47 46 47 46 46 44 41 39 36 37 36 37 35 35 38 34 34 34 35 35 35 35 35 35 37 38 38 38 38 39 41
42 40 38 39 40 41 40 40 41 41 40 39 37 35 34 34 34 30 30 30 31 32 30 31 30 33 33 30 29 28 33 34 33 34 34 33 34 35
37 36 36 36 36 36 35 35 36 36 34 33 32 31 29 29 27 28 26 27 29 27 26 25 28 29 25 23 23 24 27 28 27 27 26 26 27 30
35 34 34 34 33 33 33 32 32 32 30 29 28 27 26 27 27 25 23 21 21 27 22 20 26 23 20 16 20 21 26 24 24 23 23 24 25 25
33 33 33 33 32 31 32 31 32 31 29 29 24 24 22 22 22 20 20 19 17 21 19 17 20 19 16 14 18 22 22 21 20 20 21 22 22 23
32 32 32 31 31 30 28 28 28 28 27 26 24 22 22 20 19 18 18 17 16 19 15 12 15 12 11 12 17 20 19 18 18 19 18 18 19 20
29 29 29 30 31 30 26 25 25 23 21 22 21 20 18 17 16 14 11 10 8 7 14 10 11 10 10 11 15 16 16 15 15 15 15 15 15 16
28 29 29 28 27 26 24 22 19 17 17 15 14 13 12 12 14 13 11 9 8 5 12 9 9 9 8 11 9 11 6 11 13 14 16 18 19 18
26 25 26 25 24 22 21 19 17 15 13 11 9 10 10 10 10 10 11 11 8 7 7 9 9 6 5 4 4 5 7 8 10 11 16 15 15 14
24 24 24 23 20 18 16 16 14 13 12 10 9 7 8 8 7 7 7 8 8 6 6 9 1 6 5 4 3 4 6 8 11 10 12 11 12 14
24 24 22 20 18 18 17 15 12 11 10 8 7 7 6 6 3 5 5 4 4 4 2 6 7 6 6 5 4 4 5 6 6 10 9 9 10 10
20 18 17 17 14 13 12 11 10 10 8 7 6 5 5 6 5 4 4 4 4 3 2 3 5 6 4 4 4 3 4 4 6 7 8 8 9 10
17 15 13 11 10 9 8 7 7 7 6 6 5 4 2 3 2 3 3 3 2 1 1 2 2 2 3 3 2 2 2 4 4 6 6 6 7 9
13 11 10 9 8 6 6 6 6 6 5 4 3 2 -0 1 0 1 2 1 0 0 -0 -0 1 2 1 0 5 2 3 4 5 6 7 7 6 8
9 8 7 7 6 6 5 4 4 4 4 2 1 -1 -2 -2 -1 -1 -0 -0 -1 -1 -1 -0 1 -0 -3 -6 -2 4 2 5 6 6 6 7 7 8
8 6 5 5 5 2 2 2 1 -1 -2 -0 -4 -8 -12 -4 -4 -3 -3 -4 -3 -3 -3 -2 -1 -1 -2 -3 -1 1 8 7 8 6 6 8 10 12
5 4 4 3 1 -0 -6 -8 -14 -12 -13 -16 -12 -10 -17 -7 -7 -5 -4 -5 -5 -4 -4 -4 -3 2 1 2 -2 -2 2 8 12 11 10 9 7 8
5 3 2 0 -2 -3 -12 -15 -14 -15 -13 -11 -17 -21 -19 -14 -8 -7 -7 -7 -6 -4 -4 -4 -3 -1 -1 -1 -2 -1 3 7 12 17 19 17 12 7
-3 0 -1 -3 -3 -7 -3 -13 -14 -24 -15 -13 -11 -9 -18 -13 -7 -6 -7 -7 -5 -6 -5 -5 -3 -3 -3 0 2 3 5 8 11 13 19 21 20 20

GFSNE_sfc_dewp_114.txt.gz
Dewpoint
55 55 55 55 55 54 53 52 50 47 48 49 50 51 51 50 50 51 51 44 44 44 45 45 46 46 45 45 46 46 46 47 48 49 50 51 52 53
55 55 55 55 55 55 54 54 53 51 50 51 52 52 51 51 46 47 46 44 42 42 41 41 41 41 41 41 42 42 42 43 43 44 44 46 47 48
56 55 55 55 55 55 55 55 54 54 52 52 53 47 43 43 41 42 40 40 40 37 37 37 36 37 37 37 36 35 36 37 39 40 41 42 43 44
55 55 55 55 54 55 54 54 54 54 53 51 47 42 37 40 38 38 36 34 39 35 35 31 34 35 34 33 31 30 34 35 33 34 35 35 36 38
55 55 54 54 53 51 50 50 48 47 46 47 39 38 36 35 35 34 33 32 34 32 30 27 31 32 29 27 27 26 26 28 29 29 29 29 29 31
44 43 43 45 45 44 42 42 42 40 40 39 35 34 33 32 31 28 28 29 31 25 25 23 27 27 25 22 21 22 22 26 27 26 25 25 25 27
37 37 37 38 37 37 37 37 37 36 35 33 31 29 28 27 25 26 23 25 28 24 22 21 25 24 21 18 17 20 23 25 23 22 22 22 22 22
34 34 34 34 33 33 33 32 33 33 30 29 27 23 23 23 23 21 19 19 18 24 19 17 22 18 16 9 16 19 23 22 21 21 19 20 20 19
33 33 32 32 31 31 30 29 29 28 27 26 23 22 19 19 19 17 16 14 12 17 15 14 17 14 10 6 16 20 20 19 18 17 17 17 17 17
33 32 31 30 30 29 27 25 24 24 24 23 21 20 19 15 15 14 13 12 12 15 12 10 8 8 10 10 16 18 17 15 15 16 16 17 17 18
31 31 30 29 30 29 25 22 21 21 22 20 19 17 16 15 14 12 10 9 7 4 12 9 9 8 6 8 10 13 13 13 14 15 16 16 17 17
28 28 28 28 27 25 23 21 18 17 14 13 10 10 10 9 13 10 9 8 6 5 10 8 6 6 5 4 5 6 6 11 12 14 15 16 16 15
24 23 25 25 24 23 22 19 18 16 15 13 10 9 8 7 6 7 8 9 7 4 4 7 5 3 3 3 3 5 6 7 7 9 12 13 14 13
22 23 23 23 22 21 19 19 18 16 14 10 7 6 6 5 4 4 5 5 4 4 3 7 7 5 5 5 1 2 5 6 10 8 10 11 13 13
23 23 22 21 20 19 17 16 14 12 11 8 6 4 4 4 1 3 3 2 3 3 1 3 5 4 5 5 3 4 5 5 5 7 9 9 9 10
19 17 17 17 14 14 13 13 11 10 8 6 5 3 2 3 2 2 3 4 4 3 0 1 2 3 5 4 3 3 3 5 5 7 7 8 9 9
17 15 14 12 10 9 9 8 8 6 5 4 2 1 -0 0 0 2 2 1 0 -1 -0 1 -1 0 2 2 3 2 2 4 5 6 7 7 7 8
13 10 10 9 8 6 5 5 5 4 3 1 1 -0 -1 -0 -1 0 1 -0 -1 -1 -1 -1 -1 1 1 -1 4 3 5 6 7 6 7 8 6 8
9 9 7 7 6 5 4 3 3 3 1 -0 -1 -2 -3 -2 -2 -2 -2 -2 -2 -3 -2 -1 0 0 -3 -5 -1 4 6 5 6 7 7 8 8 8
8 7 6 6 4 2 2 1 0 -1 -1 -1 -3 -4 -7 -3 -4 -4 -3 -4 -4 -4 -4 -4 -3 -3 -2 -3 -1 2 9 10 9 8 9 11 12 14
5 4 4 3 2 -0 -2 -3 -4 -4 -6 -7 -6 -6 -11 -7 -6 -5 -5 -6 -6 -5 -4 -4 -3 2 1 3 0 1 5 11 15 16 16 15 12 12
5 2 1 1 -0 -3 -6 -8 -6 -7 -6 -5 -9 -11 -11 -9 -7 -6 -6 -6 -6 -4 -4 -3 -2 -2 -1 -1 0 2 5 10 13 17 25 23 17 12
2 1 1 -0 -1 -2 -2 -7 -6 -12 -8 -6 -7 -7 -13 -9 -6 -6 -6 -6 -5 -5 -4 -3 -3 -3 -2 -1 1 4 5 7 11 15 25 26 26 27

GFSNE_sfc_dewp_117.txt.gz
Dewpoint
56 56 55 56 56 56 55 54 52 49 49 52 52 53 54 50 51 46 44 43 42 42 41 42 43 43 43 44 43 43 44 44 44 45 45 46 47 47
56 55 56 56 56 56 55 55 54 52 50 53 53 50 49 45 45 44 42 40 39 38 38 38 38 38 38 37 36 37 38 39 39 40 41 41 42 43
54 54 55 56 55 55 55 55 54 54 52 53 53 46 43 41 41 40 40 39 38 33 33 35 36 34 33 32 31 31 33 33 33 34 34 34 36 37
54 55 55 55 55 55 55 54 55 55 53 52 47 40 39 38 37 35 34 37 36 32 28 31 32 29 27 26 25 24 24 25 28 30 30 30 30 31
54 54 54 55 54 54 55 54 54 51 51 50 39 38 34 35 33 33 32 34 31 29 25 23 28 26 25 22 20 21 23 25 27 25 25 25 25 26
55 54 54 54 54 52 49 48 45 44 43 40 36 33 33 32 30 27 27 29 29 22 21 19 26 24 22 18 16 20 22 25 25 24 23 22 20 22
40 39 39 40 38 39 42 41 41 39 37 34 31 29 27 25 24 23 23 24 26 21 18 15 21 17 15 12 11 19 23 24 22 22 20 19 19 20
35 34 34 34 33 33 31 31 33 34 31 28 25 23 23 23 21 19 18 18 18 20 15 14 19 12 9 6 15 19 21 20 19 18 18 19 19 19
33 32 32 31 30 28 28 28 27 26 26 25 23 20 17 18 18 16 15 13 12 16 15 13 10 10 6 3 13 17 18 16 17 17 18 18 18 18
32 31 31 29 29 27 25 24 23 23 22 21 20 19 16 14 14 14 14 15 13 13 11 13 7 5 6 5 12 16 16 16 16 17 17 17 17 18
30 30 29 28 28 27 23 22 21 21 22 21 20 19 19 18 16 16 13 12 11 3 11 10 7 4 4 5 4 10 13 13 15 15 16 17 17 17
28 29 28 27 25 24 22 20 18 15 13 13 15 15 14 15 16 13 12 11 7 8 7 8 4 4 7 4 4 4 5 10 12 13 14 16 16 12
24 25 26 25 24 22 21 19 17 17 16 14 12 12 10 7 7 8 9 10 7 4 1 7 7 4 5 4 2 4 5 6 7 9 12 13 15 15
22 23 24 23 22 21 20 20 19 16 15 13 11 10 9 5 4 4 4 4 4 4 2 7 11 6 6 6 3 2 6 8 10 8 9 12 14 14
22 23 22 21 20 19 18 17 16 15 13 12 8 5 3 3 2 4 4 3 5 3 0 3 6 4 7 7 5 6 10 8 7 9 11 10 11 12
20 17 16 17 15 15 15 14 12 11 10 9 6 3 3 5 5 4 6 5 8 7 1 2 3 5 7 6 5 6 6 9 10 11 11 11 11 11
16 16 15 14 12 11 10 7 7 6 7 7 6 5 3 3 4 5 5 4 6 3 2 1 -0 2 5 4 7 6 7 10 11 12 12 12 12 13
16 14 13 12 11 9 8 7 6 5 5 5 6 5 5 5 5 6 5 6 6 4 2 0 1 6 7 7 6 7 13 14 13 12 13 16 15 16
13 11 11 11 10 7 7 6 5 5 4 4 4 4 5 5 6 5 6 6 5 2 2 3 4 5 5 7 7 7 11 10 14 17 17 20 20 21
8 9 9 9 7 4 4 3 3 5 5 4 5 4 4 5 6 5 5 5 4 2 1 0 2 3 4 5 6 10 12 15 16 18 20 24 23 21
6 6 8 7 6 4 6 6 6 6 5 5 4 3 4 3 4 4 4 2 2 2 1 1 0 4 5 9 10 12 16 16 17 20 23 25 22 20
6 5 4 5 6 5 6 6 6 6 5 4 4 5 5 5 5 4 4 4 3 2 1 1 1 3 6 6 8 11 14 17 19 19 23 25 25 22
7 6 6 6 5 6 4 6 4 6 4 4 4 3 3 4 4 5 4 4 2 2 2 2 2 4 5 6 8 12 14 15 18 20 25 25 25 25

GFSNE_sfc_dewp_120.txt.gz
Dewpoint
60 59 55 53 54 53 53 54 52 50 48 53 53 55 50 48 47 44 42 41 40 40 41 41 42 40 39 39 39 40 41 40 40 40 40 41 41 42
58 58 58 57 58 58 57 56 55 53 51 53 54 49 47 44 44 42 40 37 37 37 38 38 36 36 35 33 32 32 32 32 33 35 35 35 36 36
57 57 57 57 57 58 58 56 55 55 52 54 49 45 42 41 39 41 39 36 34 33 35 33 31 30 28 27 25 25 26 27 28 32 31 31 31 32
55 55 55 56 56 56 56 56 55 55 53 52 46 39 38 38 36 35 38 36 33 31 27 29 28 26 24 22 22 23 24 27 28 27 27 27 28 28
54 54 55 54 54 55 54 54 54 54 54 53 40 37 35 36 34 33 33 33 30 27 21 26 27 24 22 19 17 21 23 26 26 25 24 23 23 24
54 54 54 54 54 55 54 54 53 50 46 40 35 33 32 31 29 28 27 30 28 20 19 17 22 18 16 15 13 19 22 24 23 21 20 20 21 22
44 42 41 43 42 44 48 45 45 41 37 34 31 29 27 25 24 22 21 25 24 19 16 15 19 14 14 13 11 15 21 21 20 20 20 20 20 21
35 35 35 35 33 33 33 33 36 36 33 29 27 24 23 23 22 21 21 21 21 17 13 14 14 10 10 7 13 15 18 19 19 20 20 19 20 20
34 33 31 31 30 28 28 28 27 28 28 27 23 21 20 20 19 18 18 16 15 12 14 15 11 9 7 3 13 15 17 18 18 18 19 19 19 19
32 31 30 29 28 27 24 23 22 22 22 21 19 19 18 16 16 16 17 16 14 13 12 18 10 5 6 6 11 12 14 16 16 17 17 18 18 19
30 30 29 28 28 28 24 22 21 21 22 21 21 21 20 19 18 18 16 19 16 7 11 12 9 6 6 8 5 11 13 14 15 15 17 17 18 18
28 28 27 26 25 23 21 19 18 17 15 14 14 15 13 13 14 13 14 15 11 13 10 12 6 6 10 7 7 8 8 13 15 16 17 16 17 15
26 25 26 24 23 21 20 18 17 17 17 15 13 12 11 10 9 8 9 13 12 7 3 9 10 6 7 6 6 9 10 13 13 14 16 17 18 17
24 25 24 22 22 21 20 20 19 19 19 17 16 12 8 7 6 6 6 7 6 5 3 9 16 10 9 10 9 9 13 14 16 14 16 17 18 18
23 23 22 22 22 21 20 20 19 19 19 17 11 7 5 5 5 7 8 6 8 7 2 5 8 6 9 12 11 12 14 14 14 17 18 16 17 18
21 19 19 19 18 18 19 19 19 18 15 13 10 6 6 8 8 7 9 9 14 12 3 4 5 7 12 11 10 13 14 17 17 18 17 19 19 20
17 19 19 17 15 14 13 12 12 12 12 12 10 8 6 7 8 10 10 10 12 7 5 4 3 7 11 11 15 13 15 17 18 18 20 21 21 22
21 21 18 17 15 12 12 10 10 9 9 10 11 10 11 11 12 12 12 13 12 8 6 4 7 13 14 15 10 12 19 19 18 19 21 24 23 24
18 17 17 16 14 11 10 9 9 10 10 11 12 12 12 11 13 12 12 12 11 7 6 7 10 12 12 15 13 11 14 16 18 21 22 24 29 25
14 15 15 14 11 7 7 8 9 11 11 11 12 12 13 13 13 11 12 11 10 8 6 5 7 8 10 12 13 16 17 20 20 21 21 25 26 25
10 11 13 11 10 9 14 15 15 14 13 13 12 11 14 13 12 11 12 9 8 7 7 5 5 8 11 15 17 18 20 20 21 22 24 26 22 21
12 10 10 11 13 14 15 14 14 14 13 12 14 14 14 14 12 11 12 11 9 8 7 6 6 9 12 12 14 16 19 23 23 24 25 26 24 22
14 12 13 13 13 13 12 13 12 13 11 11 12 12 12 12 11 12 12 10 9 9 8 7 8 10 12 12 14 17 19 21 21 21 26 26 25 25